Time,TemperatureF,DewpointF,PressureIn,WindDirection,WindDirectionDegrees,WindSpeedMPH,WindSpeedGustMPH,Humidity,HourlyPrecipIn,Conditions,Clouds,dailyrainin,SoftwareType,DateUTC
2013-01-24 00:01:00,48.4,44.1,30.11,West,266,1.1,0.0,85,0.01,RA,,0.00,WeatherDisplay:10.37,2013-01-24 08:01:00,
2013-01-24 00:02:00,48.4,44.1,30.11,West,268,1.1,1.1,85,0.01,RA,,0.00,WeatherDisplay:10.37,2013-01-24 08:02:00,
2013-01-24 00:06:00,48.4,44.1,30.11,West,264,1.0,1.0,85,0.01,RA,,0.00,WeatherDisplay:10.37,2013-01-24 08:06:00,
2013-01-24 00:07:00,48.4,44.1,30.11,West,266,1.1,1.1,85,0.01,RA,,0.00,WeatherDisplay:10.37,2013-01-24 08:07:00,
2013-01-24 00:11:00,48.4,44.1,30.11,West,266,0.0,0.0,85,0.01,SCT,,0.00,WeatherDisplay:10.37,2013-01-24 08:11:00,
2013-01-24 00:12:00,48.4,44.1,30.11,West,266,0.0,0.0,85,0.01,SCT,,0.00,WeatherDisplay:10.37,2013-01-24 08:12:00,
2013-01-24 00:16:00,48.4,44.1,30.11,West,266,0.0,0.0,85,0.01,SCT,,0.00,WeatherDisplay:10.37,2013-01-24 08:16:00,
2013-01-24 00:17:00,48.4,44.1,30.11,West,266,0.0,0.0,85,0.01,SCT,,0.00,WeatherDisplay:10.37,2013-01-24 08:17:00,
2013-01-24 00:18:00,48.5,44.2,30.11,West,266,0.0,0.0,85,0.01,SCT,,0.00,WeatherDisplay:10.37,2013-01-24 08:18:00,
2013-01-24 00:21:00,48.5,44.2,30.11,West,266,1.1,1.1,85,0.01,SCT,,0.00,WeatherDisplay:10.37,2013-01-24 08:21:00,
2013-01-24 00:22:00,48.5,44.2,30.11,West,266,1.1,1.1,85,0.01,SCT,,0.00,WeatherDisplay:10.37,2013-01-24 08:22:00,
2013-01-24 00:23:00,48.5,44.2,30.11,West,266,1.1,1.1,85,0.01,SCT,,0.00,WeatherDisplay:10.37,2013-01-24 08:23:00,
2013-01-24 00:26:00,48.5,43.9,30.11,West,266,0.0,0.0,84,0.01,SCT,,0.00,WeatherDisplay:10.37,2013-01-24 08:26:00,
2013-01-24 00:27:00,48.5,44.2,30.11,West,266,0.0,0.0,85,0.01,SCT,,0.00,WeatherDisplay:10.37,2013-01-24 08:27:00,
2013-01-24 00:28:00,48.5,44.2,30.11,West,266,0.0,0.0,85,0.01,SCT,,0.00,WeatherDisplay:10.37,2013-01-24 08:28:00,
2013-01-24 00:31:00,48.5,44.2,30.11,West,266,0.0,0.0,85,0.01,SCT,,0.00,WeatherDisplay:10.37,2013-01-24 08:31:00,
2013-01-24 00:32:00,48.5,44.2,30.11,West,266,0.0,0.0,85,0.01,SCT,,0.00,WeatherDisplay:10.37,2013-01-24 08:32:00,
2013-01-24 00:33:00,48.5,44.2,30.11,West,266,0.0,0.0,85,0.01,SCT,,0.00,WeatherDisplay:10.37,2013-01-24 08:33:00,
2013-01-24 00:36:00,48.5,44.2,30.11,West,266,0.0,0.0,85,0.01,SCT,,0.00,WeatherDisplay:10.37,2013-01-24 08:36:00,
2013-01-24 00:37:00,48.5,44.2,30.11,West,266,0.0,0.0,85,0.01,SCT,,0.00,WeatherDisplay:10.37,2013-01-24 08:37:00,
2013-01-24 00:38:00,48.5,44.2,30.11,West,266,0.0,0.0,85,0.01,SCT,,0.00,WeatherDisplay:10.37,2013-01-24 08:38:00,
2013-01-24 00:41:00,48.5,44.2,30.11,West,266,0.0,0.0,85,0.01,SCT,,0.00,WeatherDisplay:10.37,2013-01-24 08:41:00,
2013-01-24 00:42:00,48.5,44.2,30.10,West,266,0.0,0.0,85,0.01,SCT,,0.00,WeatherDisplay:10.37,2013-01-24 08:42:00,
2013-01-24 00:43:00,48.5,44.2,30.10,West,266,0.0,0.0,85,0.01,SCT,,0.00,WeatherDisplay:10.37,2013-01-24 08:43:00,
2013-01-24 00:46:00,48.5,44.2,30.10,West,266,0.0,0.0,85,0.00,SCT,,0.00,WeatherDisplay:10.37,2013-01-24 08:46:00,
2013-01-24 00:47:00,48.5,44.2,30.10,West,266,0.0,0.0,85,0.00,SCT,,0.00,WeatherDisplay:10.37,2013-01-24 08:47:00,
2013-01-24 00:48:00,48.5,44.2,30.10,West,266,0.0,0.0,85,0.00,SCT,,0.00,WeatherDisplay:10.37,2013-01-24 08:48:00,
2013-01-24 00:52:00,48.5,43.9,30.11,West,266,0.0,0.0,84,0.00,SCT,,0.00,WeatherDisplay:10.37,2013-01-24 08:52:00,
2013-01-24 00:53:00,48.5,44.2,30.10,West,266,0.0,0.0,85,0.00,SCT,,0.00,WeatherDisplay:10.37,2013-01-24 08:53:00,
2013-01-24 00:57:00,48.5,44.2,30.10,West,266,0.0,0.0,85,0.00,SCT,,0.00,WeatherDisplay:10.37,2013-01-24 08:57:00,
2013-01-24 00:58:00,48.5,44.2,30.10,West,266,0.0,0.0,85,0.00,SCT,,0.00,WeatherDisplay:10.37,2013-01-24 08:58:00,
2013-01-24 01:02:00,48.5,44.2,30.10,West,266,0.0,0.0,85,0.00,SCT,,0.00,WeatherDisplay:10.37,2013-01-24 09:02:00,
2013-01-24 01:03:00,48.5,44.2,30.10,West,266,0.0,0.0,85,0.00,SCT,,0.00,WeatherDisplay:10.37,2013-01-24 09:03:00,
2013-01-24 01:04:00,48.5,44.2,30.10,West,266,0.0,0.0,85,0.00,SCT,,0.00,WeatherDisplay:10.37,2013-01-24 09:04:00,
2013-01-24 01:07:00,48.5,44.2,30.10,West,266,0.0,0.0,85,0.00,SCT,,0.00,WeatherDisplay:10.37,2013-01-24 09:07:00,
2013-01-24 01:08:00,48.5,44.2,30.10,West,266,1.0,0.0,85,0.00,SCT,,0.00,WeatherDisplay:10.37,2013-01-24 09:08:00,
2013-01-24 01:09:00,48.5,44.2,30.10,West,266,1.1,0.0,85,0.00,SCT,,0.00,WeatherDisplay:10.37,2013-01-24 09:09:00,
2013-01-24 01:12:00,48.5,44.2,30.10,West,266,1.1,0.0,85,0.00,SCT,,0.00,WeatherDisplay:10.37,2013-01-24 09:12:00,
2013-01-24 01:13:00,48.5,44.2,30.10,West,266,0.0,0.0,85,0.00,SCT,,0.00,WeatherDisplay:10.37,2013-01-24 09:13:00,
2013-01-24 01:14:00,48.4,44.1,30.10,West,266,0.0,0.0,85,0.00,SCT,,0.00,WeatherDisplay:10.37,2013-01-24 09:14:00,
2013-01-24 01:17:00,48.4,44.1,30.10,West,266,0.0,0.1,85,0.00,SCT,,0.00,WeatherDisplay:10.37,2013-01-24 09:17:00,
2013-01-24 01:18:00,48.4,44.1,30.10,West,266,1.1,0.0,85,0.00,SCT,,0.00,WeatherDisplay:10.37,2013-01-24 09:18:00,
2013-01-24 01:19:00,48.5,44.2,30.10,West,266,1.1,0.0,85,0.00,SCT,,0.00,WeatherDisplay:10.37,2013-01-24 09:19:00,
2013-01-24 01:22:00,48.5,44.2,30.10,West,266,0.0,0.0,85,0.00,SCT,,0.00,WeatherDisplay:10.37,2013-01-24 09:22:00,
2013-01-24 01:23:00,48.5,44.2,30.10,West,266,0.0,0.0,85,0.00,SCT,,0.00,WeatherDisplay:10.37,2013-01-24 09:23:00,
2013-01-24 01:24:00,48.4,44.1,30.10,West,266,0.0,0.0,85,0.00,SCT,,0.00,WeatherDisplay:10.37,2013-01-24 09:24:00,
2013-01-24 01:27:00,48.4,44.1,30.10,North,11,1.1,1.1,85,0.00,SCT,,0.00,WeatherDisplay:10.37,2013-01-24 09:27:00,
2013-01-24 01:28:00,48.5,44.5,30.11,North,11,1.1,1.1,86,0.00,SCT,,0.00,WeatherDisplay:10.37,2013-01-24 09:28:00,
2013-01-24 01:29:00,48.4,44.1,30.10,North,11,1.1,1.1,85,0.00,SCT,,0.00,WeatherDisplay:10.37,2013-01-24 09:29:00,
2013-01-24 01:32:00,48.4,44.1,30.10,North,11,2.3,2.3,85,0.00,SCT,,0.00,WeatherDisplay:10.37,2013-01-24 09:32:00,
2013-01-24 01:33:00,48.4,44.1,30.10,North,11,2.3,0.0,85,0.00,SCT,,0.00,WeatherDisplay:10.37,2013-01-24 09:33:00,
2013-01-24 01:34:00,48.4,44.1,30.10,North,11,0.0,0.0,85,0.00,SCT,,0.00,WeatherDisplay:10.37,2013-01-24 09:34:00,
2013-01-24 01:35:00,48.4,44.1,30.11,North,11,0.0,0.0,85,0.00,SCT,,0.00,WeatherDisplay:10.37,2013-01-24 09:35:00,
2013-01-24 01:37:00,48.4,44.1,30.11,North,11,2.3,2.3,85,0.00,SCT,,0.00,WeatherDisplay:10.37,2013-01-24 09:37:00,
2013-01-24 01:38:00,48.4,44.1,30.11,North,11,2.3,0.0,85,0.00,SCT,,0.00,WeatherDisplay:10.37,2013-01-24 09:38:00,
2013-01-24 01:39:00,48.4,44.4,30.11,North,11,1.1,0.0,86,0.00,SCT,,0.00,WeatherDisplay:10.37,2013-01-24 09:39:00,
2013-01-24 01:40:00,48.4,44.1,30.11,North,11,0.0,0.0,85,0.00,SCT,,0.00,WeatherDisplay:10.37,2013-01-24 09:40:00,
2013-01-24 01:42:00,48.4,44.1,30.11,North,11,0.0,0.0,85,0.00,SCT,,0.00,WeatherDisplay:10.37,2013-01-24 09:42:00,
2013-01-24 01:43:00,48.4,44.1,30.11,North,11,0.0,0.0,85,0.00,SCT,,0.00,WeatherDisplay:10.37,2013-01-24 09:43:00,
2013-01-24 01:44:00,48.4,44.1,30.11,North,11,0.0,0.0,85,0.00,SCT,,0.00,WeatherDisplay:10.37,2013-01-24 09:44:00,
2013-01-24 01:45:00,48.4,44.1,30.11,North,11,0.0,0.0,85,0.00,SCT,,0.00,WeatherDisplay:10.37,2013-01-24 09:45:00,
2013-01-24 01:47:00,48.4,44.1,30.11,North,11,0.0,0.0,85,0.00,SCT,,0.00,WeatherDisplay:10.37,2013-01-24 09:47:00,
2013-01-24 01:49:00,48.4,44.1,30.11,North,11,0.0,0.0,85,0.00,SCT,,0.00,WeatherDisplay:10.37,2013-01-24 09:49:00,
2013-01-24 01:50:00,48.4,44.1,30.11,North,11,0.0,0.0,85,0.00,SCT,,0.00,WeatherDisplay:10.37,2013-01-24 09:50:00,
2013-01-24 01:52:00,48.4,44.1,30.11,North,11,0.0,0.0,85,0.00,SCT,,0.00,WeatherDisplay:10.37,2013-01-24 09:52:00,
2013-01-24 01:54:00,48.4,44.1,30.12,North,11,0.0,0.0,85,0.00,SCT,,0.00,WeatherDisplay:10.37,2013-01-24 09:54:00,
2013-01-24 01:55:00,48.4,44.1,30.11,North,11,0.0,0.0,85,0.00,SCT,,0.00,WeatherDisplay:10.37,2013-01-24 09:55:00,
2013-01-24 01:56:00,48.4,44.1,30.11,North,11,0.0,0.0,85,0.00,SCT,,0.00,WeatherDisplay:10.37,2013-01-24 09:56:00,
2013-01-24 01:58:00,48.4,44.1,30.11,North,11,0.0,0.0,85,0.00,SCT,,0.00,WeatherDisplay:10.37,2013-01-24 09:58:00,
2013-01-24 01:59:00,48.4,44.1,30.11,North,11,0.0,0.0,85,0.00,SCT,,0.00,WeatherDisplay:10.37,2013-01-24 09:59:00,
2013-01-24 02:00:00,48.4,44.1,30.11,North,11,0.0,0.0,85,0.00,SCT,,0.00,WeatherDisplay:10.37,2013-01-24 10:00:00,
2013-01-24 02:01:00,48.4,44.1,30.11,North,11,0.0,0.0,85,0.00,SCT,,0.00,WeatherDisplay:10.37,2013-01-24 10:01:00,
2013-01-24 02:03:00,48.4,44.1,30.11,North,11,0.0,0.0,85,0.00,SCT,,0.00,WeatherDisplay:10.37,2013-01-24 10:03:00,
2013-01-24 02:04:00,48.5,44.2,30.11,North,11,0.0,0.0,85,0.00,SCT,,0.00,WeatherDisplay:10.37,2013-01-24 10:04:00,
2013-01-24 02:05:00,48.4,44.1,30.11,North,11,0.0,0.0,85,0.00,SCT,,0.00,WeatherDisplay:10.37,2013-01-24 10:05:00,
2013-01-24 02:06:00,48.4,44.1,30.11,North,11,0.0,0.0,85,0.00,SCT,,0.00,WeatherDisplay:10.37,2013-01-24 10:06:00,
2013-01-24 02:08:00,48.4,44.1,30.11,North,11,0.0,0.0,85,0.00,SCT,,0.00,WeatherDisplay:10.37,2013-01-24 10:08:00,
2013-01-24 02:09:00,48.4,44.1,30.11,North,11,0.0,0.0,85,0.00,SCT,,0.00,WeatherDisplay:10.37,2013-01-24 10:09:00,
2013-01-24 02:10:00,48.4,44.1,30.11,North,11,0.0,0.0,85,0.00,SCT,,0.00,WeatherDisplay:10.37,2013-01-24 10:10:00,
2013-01-24 02:11:00,48.4,44.4,30.11,North,11,0.0,0.0,86,0.00,SCT,,0.00,WeatherDisplay:10.37,2013-01-24 10:11:00,
2013-01-24 02:13:00,48.4,44.1,30.11,North,11,0.0,0.0,85,0.00,SCT,,0.00,WeatherDisplay:10.37,2013-01-24 10:13:00,
2013-01-24 02:14:00,48.4,44.4,30.11,North,11,0.0,0.0,86,0.00,SCT,,0.00,WeatherDisplay:10.37,2013-01-24 10:14:00,
2013-01-24 02:15:00,48.4,44.4,30.11,North,11,0.0,0.0,86,0.00,SCT,,0.00,WeatherDisplay:10.37,2013-01-24 10:15:00,
2013-01-24 02:16:00,48.4,44.4,30.11,North,11,0.0,0.0,86,0.00,SCT,,0.00,WeatherDisplay:10.37,2013-01-24 10:16:00,
2013-01-24 02:18:00,48.4,44.1,30.11,North,11,0.0,0.0,85,0.00,SCT,,0.00,WeatherDisplay:10.37,2013-01-24 10:18:00,
2013-01-24 02:19:00,48.4,44.1,30.11,North,11,0.0,0.0,85,0.00,SCT,,0.00,WeatherDisplay:10.37,2013-01-24 10:19:00,
2013-01-24 02:20:00,48.4,44.1,30.11,North,11,0.0,0.0,85,0.00,SCT,,0.00,WeatherDisplay:10.37,2013-01-24 10:20:00,
2013-01-24 02:22:00,48.4,44.4,30.11,North,11,0.0,0.0,86,0.00,SCT,,0.00,WeatherDisplay:10.37,2013-01-24 10:22:00,
2013-01-24 02:23:00,48.3,44.3,30.11,North,11,0.0,0.0,86,0.00,SCT,,0.00,WeatherDisplay:10.37,2013-01-24 10:23:00,
2013-01-24 02:24:00,48.4,44.1,30.11,North,11,0.0,0.0,85,0.00,SCT,,0.00,WeatherDisplay:10.37,2013-01-24 10:24:00,
2013-01-24 02:25:00,48.4,44.4,30.11,North,11,0.0,0.0,86,0.00,SCT,,0.00,WeatherDisplay:10.37,2013-01-24 10:25:00,
2013-01-24 02:27:00,48.4,44.4,30.11,North,11,0.0,0.0,86,0.00,SCT,,0.00,WeatherDisplay:10.37,2013-01-24 10:27:00,
2013-01-24 02:29:00,48.4,44.1,30.11,North,11,0.0,0.0,85,0.00,SCT,,0.00,WeatherDisplay:10.37,2013-01-24 10:29:00,
2013-01-24 02:30:00,48.4,44.1,30.11,North,11,0.0,0.0,85,0.00,SCT,,0.00,WeatherDisplay:10.37,2013-01-24 10:30:00,
2013-01-24 02:32:00,48.4,44.1,30.11,North,11,0.0,0.0,85,0.00,SCT,,0.00,WeatherDisplay:10.37,2013-01-24 10:32:00,
2013-01-24 02:34:00,48.4,44.1,30.11,North,11,0.0,0.0,85,0.00,SCT,,0.00,WeatherDisplay:10.37,2013-01-24 10:34:00,
2013-01-24 02:36:00,48.4,44.1,30.11,North,11,0.0,0.0,85,0.00,SCT,,0.00,WeatherDisplay:10.37,2013-01-24 10:36:00,
2013-01-24 02:37:00,48.4,44.1,30.11,North,11,0.0,0.0,85,0.00,SCT,,0.00,WeatherDisplay:10.37,2013-01-24 10:37:00,
2013-01-24 02:39:00,48.4,44.1,30.11,North,11,0.0,0.0,85,0.00,SCT,,0.00,WeatherDisplay:10.37,2013-01-24 10:39:00,
2013-01-24 02:41:00,48.4,44.1,30.11,North,11,0.0,0.0,85,0.00,SCT,,0.00,WeatherDisplay:10.37,2013-01-24 10:41:00,
2013-01-24 02:42:00,48.4,44.1,30.11,North,11,0.0,0.0,85,0.00,SCT,,0.00,WeatherDisplay:10.37,2013-01-24 10:42:00,
2013-01-24 02:44:00,48.4,44.1,30.11,North,11,0.0,0.0,85,0.00,SCT,,0.00,WeatherDisplay:10.37,2013-01-24 10:44:00,
2013-01-24 02:45:00,48.4,44.1,30.11,North,11,0.0,0.0,85,0.00,SCT,,0.00,WeatherDisplay:10.37,2013-01-24 10:45:00,
2013-01-24 02:46:00,48.4,44.1,30.11,North,11,0.0,0.0,85,0.00,SCT,,0.00,WeatherDisplay:10.37,2013-01-24 10:46:00,
2013-01-24 02:47:00,48.4,44.1,30.10,North,11,0.0,0.0,85,0.00,SCT,,0.00,WeatherDisplay:10.37,2013-01-24 10:47:00,
2013-01-24 02:49:00,48.4,44.1,30.11,North,11,0.0,0.0,85,0.00,SCT,,0.00,WeatherDisplay:10.37,2013-01-24 10:49:00,
2013-01-24 02:50:00,48.4,44.1,30.11,North,11,0.0,0.0,85,0.00,SCT,,0.00,WeatherDisplay:10.37,2013-01-24 10:50:00,
2013-01-24 02:51:00,48.4,44.1,30.10,North,11,0.0,0.0,85,0.00,SCT,,0.00,WeatherDisplay:10.37,2013-01-24 10:51:00,
2013-01-24 02:52:00,48.4,44.1,30.11,North,11,0.0,0.0,85,0.00,SCT,,0.00,WeatherDisplay:10.37,2013-01-24 10:52:00,
2013-01-24 02:54:00,48.4,44.1,30.11,North,11,0.0,0.0,85,0.00,SCT,,0.00,WeatherDisplay:10.37,2013-01-24 10:54:00,
2013-01-24 02:55:00,48.4,44.1,30.11,North,11,0.0,0.0,85,0.00,SCT,,0.00,WeatherDisplay:10.37,2013-01-24 10:55:00,
2013-01-24 02:56:00,48.4,44.1,30.11,North,11,0.0,0.0,85,0.00,SCT,,0.00,WeatherDisplay:10.37,2013-01-24 10:56:00,
2013-01-24 02:57:00,48.4,44.1,30.10,North,11,0.0,0.0,85,0.00,SCT,,0.00,WeatherDisplay:10.37,2013-01-24 10:57:00,
2013-01-24 02:59:00,48.4,44.1,30.11,North,11,0.0,0.0,85,0.00,SCT,,0.00,WeatherDisplay:10.37,2013-01-24 10:59:00,
2013-01-24 03:00:00,48.4,44.1,30.10,North,11,0.0,0.0,85,0.00,SCT,,0.00,WeatherDisplay:10.37,2013-01-24 11:00:00,
2013-01-24 03:01:00,48.4,44.4,30.10,North,11,0.0,0.0,86,0.00,SCT,,0.00,WeatherDisplay:10.37,2013-01-24 11:01:00,
2013-01-24 03:03:00,48.4,44.4,30.10,North,11,0.0,0.0,86,0.00,SCT,,0.00,WeatherDisplay:10.37,2013-01-24 11:03:00,
2013-01-24 03:04:00,48.4,44.4,30.10,North,11,0.0,0.0,86,0.00,SCT,,0.00,WeatherDisplay:10.37,2013-01-24 11:04:00,
2013-01-24 03:05:00,48.4,44.4,30.10,North,11,0.0,0.0,86,0.00,SCT,,0.00,WeatherDisplay:10.37,2013-01-24 11:05:00,
2013-01-24 03:06:00,48.4,44.4,30.10,North,11,0.0,0.0,86,0.00,SCT,,0.00,WeatherDisplay:10.37,2013-01-24 11:06:00,
2013-01-24 03:08:00,48.4,44.4,30.11,North,11,0.0,0.0,86,0.00,SCT,,0.00,WeatherDisplay:10.37,2013-01-24 11:08:00,
2013-01-24 03:09:00,48.4,44.4,30.10,North,11,0.0,0.0,86,0.00,SCT,,0.00,WeatherDisplay:10.37,2013-01-24 11:09:00,
2013-01-24 03:10:00,48.4,44.4,30.10,North,11,0.0,0.0,86,0.00,SCT,,0.00,WeatherDisplay:10.37,2013-01-24 11:10:00,
2013-01-24 03:12:00,48.4,44.4,30.10,North,11,0.0,0.0,86,0.00,SCT,,0.00,WeatherDisplay:10.37,2013-01-24 11:12:00,
2013-01-24 03:13:00,48.4,44.4,30.10,North,11,0.0,0.0,86,0.00,SCT,,0.00,WeatherDisplay:10.37,2013-01-24 11:13:00,
2013-01-24 03:14:00,48.5,44.5,30.10,North,11,0.0,0.0,86,0.00,SCT,,0.00,WeatherDisplay:10.37,2013-01-24 11:14:00,
2013-01-24 03:15:00,48.4,44.1,30.10,North,11,0.0,0.0,85,0.00,SCT,,0.00,WeatherDisplay:10.37,2013-01-24 11:15:00,
2013-01-24 03:17:00,48.4,44.1,30.10,North,11,0.0,0.0,85,0.00,SCT,,0.00,WeatherDisplay:10.37,2013-01-24 11:17:00,
2013-01-24 03:18:00,48.5,44.2,30.10,North,11,0.0,0.0,85,0.00,SCT,,0.00,WeatherDisplay:10.37,2013-01-24 11:18:00,
2013-01-24 03:19:00,48.5,44.5,30.10,North,11,0.0,0.0,86,0.00,SCT,,0.00,WeatherDisplay:10.37,2013-01-24 11:19:00,
2013-01-24 03:20:00,48.5,44.5,30.10,North,11,0.0,0.0,86,0.00,SCT,,0.00,WeatherDisplay:10.37,2013-01-24 11:20:00,
2013-01-24 03:22:00,48.5,44.5,30.10,North,11,0.0,0.0,86,0.00,SCT,,0.00,WeatherDisplay:10.37,2013-01-24 11:22:00,
2013-01-24 03:24:00,48.5,44.5,30.10,North,11,0.0,0.0,86,0.00,SCT,,0.00,WeatherDisplay:10.37,2013-01-24 11:24:00,
2013-01-24 03:25:00,48.5,44.5,30.10,North,11,0.0,0.0,86,0.00,SCT,,0.00,WeatherDisplay:10.37,2013-01-24 11:25:00,
2013-01-24 03:27:00,48.5,44.5,30.10,North,11,0.0,0.0,86,0.00,SCT,,0.00,WeatherDisplay:10.37,2013-01-24 11:27:00,
2013-01-24 03:30:00,48.5,44.5,30.10,North,11,0.0,0.0,86,0.00,SCT,,0.00,WeatherDisplay:10.37,2013-01-24 11:30:00,
2013-01-24 03:32:00,48.5,44.5,30.10,North,11,0.0,0.0,86,0.00,SCT,,0.00,WeatherDisplay:10.37,2013-01-24 11:32:00,
2013-01-24 03:35:00,48.5,44.5,30.10,North,11,0.0,0.0,86,0.00,SCT,,0.00,WeatherDisplay:10.37,2013-01-24 11:35:00,
2013-01-24 03:37:00,48.4,44.7,30.10,North,11,0.0,0.0,87,0.00,SCT,,0.00,WeatherDisplay:10.37,2013-01-24 11:37:00,
2013-01-24 03:40:00,48.4,44.7,30.10,North,11,0.0,0.0,87,0.00,SCT,,0.00,WeatherDisplay:10.37,2013-01-24 11:40:00,
2013-01-24 03:42:00,48.4,44.7,30.10,North,11,0.0,0.0,87,0.00,SCT,,0.00,WeatherDisplay:10.37,2013-01-24 11:42:00,
2013-01-24 03:45:00,48.4,44.7,30.10,North,11,0.0,0.0,87,0.00,SCT,,0.00,WeatherDisplay:10.37,2013-01-24 11:45:00,
2013-01-24 03:46:00,48.4,44.7,30.10,North,11,0.0,0.0,87,0.00,SCT,,0.00,WeatherDisplay:10.37,2013-01-24 11:46:00,
2013-01-24 03:48:00,48.4,44.7,30.10,North,11,0.0,0.0,87,0.00,SCT,,0.00,WeatherDisplay:10.37,2013-01-24 11:48:00,
2013-01-24 03:50:00,48.4,44.7,30.10,North,11,0.0,0.0,87,0.00,SCT,,0.00,WeatherDisplay:10.37,2013-01-24 11:50:00,
2013-01-24 03:51:00,48.4,44.7,30.10,North,11,0.0,0.0,87,0.00,SCT,,0.00,WeatherDisplay:10.37,2013-01-24 11:51:00,
2013-01-24 03:53:00,48.4,44.7,30.10,North,11,0.0,0.0,87,0.00,SCT,,0.00,WeatherDisplay:10.37,2013-01-24 11:53:00,
2013-01-24 03:55:00,48.4,44.7,30.10,North,11,0.0,0.0,87,0.00,SCT,,0.00,WeatherDisplay:10.37,2013-01-24 11:55:00,
2013-01-24 03:56:00,48.4,44.7,30.10,North,11,0.0,0.0,87,0.00,SCT,,0.00,WeatherDisplay:10.37,2013-01-24 11:56:00,
2013-01-24 03:58:00,48.4,44.4,30.10,North,11,0.0,0.0,86,0.00,SCT,,0.00,WeatherDisplay:10.37,2013-01-24 11:58:00,
2013-01-24 04:01:00,48.5,44.5,30.10,North,11,0.0,0.0,86,0.00,SCT,,0.00,WeatherDisplay:10.37,2013-01-24 12:01:00,
2013-01-24 04:03:00,48.5,44.5,30.10,North,11,0.0,0.0,86,0.00,SCT,,0.00,WeatherDisplay:10.37,2013-01-24 12:03:00,
2013-01-24 04:06:00,48.5,44.5,30.11,North,11,0.0,0.0,86,0.00,SCT,,0.00,WeatherDisplay:10.37,2013-01-24 12:06:00,
2013-01-24 04:09:00,48.5,44.5,30.11,North,11,0.0,0.0,86,0.00,SCT,,0.00,WeatherDisplay:10.37,2013-01-24 12:09:00,
2013-01-24 04:11:00,48.5,44.5,30.10,North,11,0.0,0.0,86,0.00,SCT,,0.00,WeatherDisplay:10.37,2013-01-24 12:11:00,
2013-01-24 04:12:00,48.5,44.5,30.11,North,11,0.0,0.0,86,0.00,SCT,,0.00,WeatherDisplay:10.37,2013-01-24 12:12:00,
2013-01-24 04:14:00,48.5,44.5,30.10,North,11,0.0,0.0,86,0.00,SCT,,0.00,WeatherDisplay:10.37,2013-01-24 12:14:00,
2013-01-24 04:16:00,48.5,44.5,30.11,North,11,0.0,0.0,86,0.00,SCT,,0.00,WeatherDisplay:10.37,2013-01-24 12:16:00,
2013-01-24 04:17:00,48.5,44.5,30.11,North,11,0.0,0.0,86,0.00,SCT,,0.00,WeatherDisplay:10.37,2013-01-24 12:17:00,
2013-01-24 04:19:00,48.5,44.5,30.11,North,11,0.0,0.0,86,0.00,SCT,,0.00,WeatherDisplay:10.37,2013-01-24 12:19:00,
2013-01-24 04:21:00,48.5,44.5,30.11,North,11,0.0,0.0,86,0.00,SCT,,0.00,WeatherDisplay:10.37,2013-01-24 12:21:00,
2013-01-24 04:22:00,48.5,44.5,30.11,North,11,0.0,0.0,86,0.00,SCT,,0.00,WeatherDisplay:10.37,2013-01-24 12:22:00,
2013-01-24 04:24:00,48.5,44.5,30.10,North,11,0.0,0.0,86,0.00,SCT,,0.00,WeatherDisplay:10.37,2013-01-24 12:24:00,
2013-01-24 04:27:00,48.5,44.5,30.10,North,11,0.0,0.0,86,0.00,SCT,,0.00,WeatherDisplay:10.37,2013-01-24 12:27:00,
2013-01-24 04:29:00,48.5,44.5,30.11,North,11,0.0,0.0,86,0.00,SCT,,0.00,WeatherDisplay:10.37,2013-01-24 12:29:00,
2013-01-24 04:32:00,48.5,44.5,30.11,North,11,0.0,0.0,86,0.00,SCT,,0.00,WeatherDisplay:10.37,2013-01-24 12:32:00,
2013-01-24 04:34:00,48.5,44.5,30.10,North,11,0.0,0.0,86,0.00,SCT,,0.00,WeatherDisplay:10.37,2013-01-24 12:34:00,
2013-01-24 04:37:00,48.5,44.5,30.10,North,11,0.0,0.0,86,0.00,SCT,,0.00,WeatherDisplay:10.37,2013-01-24 12:37:00,
2013-01-24 04:39:00,48.5,44.5,30.11,North,11,0.0,0.0,86,0.00,SCT,,0.00,WeatherDisplay:10.37,2013-01-24 12:39:00,
2013-01-24 04:42:00,48.5,44.5,30.11,North,11,0.0,0.0,86,0.00,SCT,,0.00,WeatherDisplay:10.37,2013-01-24 12:42:00,
2013-01-24 04:44:00,48.5,44.5,30.11,North,11,0.0,0.0,86,0.00,SCT,,0.00,WeatherDisplay:10.37,2013-01-24 12:44:00,
2013-01-24 04:47:00,48.5,44.8,30.11,North,11,0.0,0.0,87,0.00,SCT,,0.00,WeatherDisplay:10.37,2013-01-24 12:47:00,
2013-01-24 04:49:00,48.5,44.5,30.11,North,11,0.0,0.0,86,0.00,SCT,,0.00,WeatherDisplay:10.37,2013-01-24 12:49:00,
2013-01-24 04:52:00,48.5,44.5,30.11,North,11,0.0,0.0,86,0.00,SCT,,0.00,WeatherDisplay:10.37,2013-01-24 12:52:00,
2013-01-24 04:53:00,48.5,44.5,30.11,North,11,0.0,0.0,86,0.00,SCT,,0.00,WeatherDisplay:10.37,2013-01-24 12:53:00,
2013-01-24 04:54:00,48.5,44.5,30.11,North,11,0.0,0.0,86,0.00,SCT,,0.00,WeatherDisplay:10.37,2013-01-24 12:54:00,
2013-01-24 04:57:00,48.5,44.5,30.11,North,11,0.0,0.0,86,0.00,SCT,,0.00,WeatherDisplay:10.37,2013-01-24 12:57:00,
2013-01-24 04:58:00,48.5,44.5,30.12,North,11,0.0,0.0,86,0.00,SCT,,0.00,WeatherDisplay:10.37,2013-01-24 12:58:00,
2013-01-24 04:59:00,48.5,44.8,30.11,North,11,0.0,0.0,87,0.00,SCT,,0.00,WeatherDisplay:10.37,2013-01-24 12:59:00,
2013-01-24 05:02:00,48.5,44.5,30.11,North,11,0.0,0.0,86,0.00,SCT,,0.00,WeatherDisplay:10.37,2013-01-24 13:02:00,
2013-01-24 05:03:00,48.5,44.5,30.11,North,11,0.0,0.0,86,0.00,SCT,,0.00,WeatherDisplay:10.37,2013-01-24 13:03:00,
2013-01-24 05:04:00,48.6,44.6,30.11,North,11,0.0,0.0,86,0.00,SCT,,0.00,WeatherDisplay:10.37,2013-01-24 13:04:00,
2013-01-24 05:07:00,48.5,44.5,30.11,North,11,0.0,0.0,86,0.00,SCT,,0.00,WeatherDisplay:10.37,2013-01-24 13:07:00,
2013-01-24 05:08:00,48.5,44.8,30.11,North,11,1.1,1.1,87,0.00,SCT,,0.00,WeatherDisplay:10.37,2013-01-24 13:08:00,
2013-01-24 05:10:00,48.5,44.8,30.11,North,4,2.0,2.0,87,0.00,SCT,,0.00,WeatherDisplay:10.37,2013-01-24 13:10:00,
2013-01-24 05:12:00,48.5,44.8,30.11,North,5,2.3,2.3,87,0.00,SCT,,0.00,WeatherDisplay:10.37,2013-01-24 13:12:00,
2013-01-24 05:13:00,48.6,44.9,30.11,North,5,1.1,1.1,87,0.00,SCT,,0.00,WeatherDisplay:10.37,2013-01-24 13:13:00,
2013-01-24 05:15:00,48.6,44.9,30.11,North,5,3.0,3.0,87,0.00,SCT,,0.00,WeatherDisplay:10.37,2013-01-24 13:15:00,
2013-01-24 05:17:00,48.6,44.9,30.11,North,5,2.3,2.3,87,0.00,SCT,,0.00,WeatherDisplay:10.37,2013-01-24 13:17:00,
2013-01-24 05:18:00,48.6,44.9,30.11,North,5,2.3,2.3,87,0.00,SCT,,0.00,WeatherDisplay:10.37,2013-01-24 13:18:00,
2013-01-24 05:19:00,48.6,44.9,30.11,North,5,2.3,0.0,87,0.00,SCT,,0.00,WeatherDisplay:10.37,2013-01-24 13:19:00,
2013-01-24 05:20:00,48.7,45.0,30.11,North,5,1.1,1.1,87,0.00,SCT,,0.00,WeatherDisplay:10.37,2013-01-24 13:20:00,
2013-01-24 05:22:00,48.6,44.9,30.11,North,5,2.3,2.3,87,0.00,SCT,,0.00,WeatherDisplay:10.37,2013-01-24 13:22:00,
2013-01-24 05:23:00,48.7,45.0,30.11,North,5,1.1,1.1,87,0.00,SCT,,0.00,WeatherDisplay:10.37,2013-01-24 13:23:00,
2013-01-24 05:24:00,48.7,45.0,30.11,North,5,1.1,1.1,87,0.00,SCT,,0.00,WeatherDisplay:10.37,2013-01-24 13:24:00,
2013-01-24 05:25:00,48.7,45.0,30.11,North,9,3.5,3.5,87,0.00,SCT,,0.00,WeatherDisplay:10.37,2013-01-24 13:25:00,
2013-01-24 05:28:00,48.7,45.0,30.12,North,10,1.1,1.1,87,0.00,SCT,,0.00,WeatherDisplay:10.37,2013-01-24 13:28:00,
2013-01-24 05:29:00,48.7,45.0,30.12,North,10,2.3,2.3,87,0.00,SCT,,0.00,WeatherDisplay:10.37,2013-01-24 13:29:00,
2013-01-24 05:30:00,48.7,45.0,30.11,North,10,1.1,0.0,87,0.00,SCT,,0.00,WeatherDisplay:10.37,2013-01-24 13:30:00,
2013-01-24 05:33:00,48.7,45.0,30.11,North,10,1.1,1.1,87,0.00,SCT,,0.00,WeatherDisplay:10.37,2013-01-24 13:33:00,
2013-01-24 05:34:00,48.8,45.1,30.11,North,10,2.3,2.3,87,0.00,SCT,,0.00,WeatherDisplay:10.37,2013-01-24 13:34:00,
2013-01-24 05:35:00,48.7,45.0,30.11,North,10,2.3,2.3,87,0.00,SCT,,0.00,WeatherDisplay:10.37,2013-01-24 13:35:00,
2013-01-24 05:38:00,48.8,45.1,30.11,North,359,2.3,2.3,87,0.00,SCT,,0.00,WeatherDisplay:10.37,2013-01-24 13:38:00,
2013-01-24 05:39:00,48.8,45.1,30.11,North,359,1.1,1.1,87,0.00,SCT,,0.00,WeatherDisplay:10.37,2013-01-24 13:39:00,
2013-01-24 05:40:00,48.8,45.1,30.11,North,359,0.0,0.0,87,0.00,SCT,,0.00,WeatherDisplay:10.37,2013-01-24 13:40:00,
2013-01-24 05:43:00,48.8,45.1,30.11,North,359,0.0,0.0,87,0.00,SCT,,0.00,WeatherDisplay:10.37,2013-01-24 13:43:00,
2013-01-24 05:44:00,48.8,45.1,30.11,North,355,0.0,0.0,87,0.00,SCT,,0.00,WeatherDisplay:10.37,2013-01-24 13:44:00,
2013-01-24 05:45:00,48.8,45.1,30.12,North,354,0.0,0.0,87,0.00,SCT,,0.00,WeatherDisplay:10.37,2013-01-24 13:45:00,
2013-01-24 05:48:00,48.9,45.2,30.11,North,356,0.0,0.0,87,0.00,SCT,,0.00,WeatherDisplay:10.37,2013-01-24 13:48:00,
2013-01-24 05:49:00,48.8,45.1,30.12,North,356,0.0,0.0,87,0.00,SCT,,0.00,WeatherDisplay:10.37,2013-01-24 13:49:00,
2013-01-24 05:50:00,48.8,45.1,30.11,North,356,0.0,0.0,87,0.00,SCT,,0.00,WeatherDisplay:10.37,2013-01-24 13:50:00,
2013-01-24 05:53:00,48.9,45.5,30.11,North,356,0.0,0.0,88,0.00,SCT,,0.00,WeatherDisplay:10.37,2013-01-24 13:53:00,
2013-01-24 05:54:00,48.8,45.4,30.11,North,356,0.0,0.0,88,0.00,SCT,,0.00,WeatherDisplay:10.37,2013-01-24 13:54:00,
2013-01-24 05:55:00,48.8,45.1,30.11,North,356,0.0,0.0,87,0.00,SCT,,0.00,WeatherDisplay:10.37,2013-01-24 13:55:00,
2013-01-24 05:58:00,48.9,45.2,30.11,North,360,3.0,3.0,87,0.00,SCT,,0.00,WeatherDisplay:10.37,2013-01-24 13:58:00,
2013-01-24 05:59:00,48.8,45.1,30.11,North,4,2.0,2.0,87,0.00,SCT,,0.00,WeatherDisplay:10.37,2013-01-24 13:59:00,
2013-01-24 06:00:00,48.8,45.4,30.12,North,6,3.5,3.5,88,0.00,SCT,,0.00,WeatherDisplay:10.37,2013-01-24 14:00:00,
2013-01-24 06:01:00,48.9,45.2,30.11,North,6,3.5,3.5,87,0.00,SCT,,0.00,WeatherDisplay:10.37,2013-01-24 14:01:00,
2013-01-24 06:04:00,48.8,45.1,30.11,North,6,1.1,0.0,87,0.00,SCT,,0.00,WeatherDisplay:10.37,2013-01-24 14:04:00,
2013-01-24 06:05:00,48.9,45.2,30.12,North,6,0.0,0.0,87,0.00,SCT,,0.00,WeatherDisplay:10.37,2013-01-24 14:05:00,
2013-01-24 06:06:00,48.9,45.2,30.12,North,6,1.1,1.1,87,0.00,SCT,,0.00,WeatherDisplay:10.37,2013-01-24 14:06:00,
2013-01-24 06:09:00,48.9,45.5,30.12,North,6,0.0,0.0,88,0.00,SCT,,0.00,WeatherDisplay:10.37,2013-01-24 14:09:00,
2013-01-24 06:10:00,48.9,45.2,30.12,North,6,0.0,0.0,87,0.00,SCT,,0.00,WeatherDisplay:10.37,2013-01-24 14:10:00,
2013-01-24 06:11:00,48.9,45.2,30.12,North,6,0.0,0.0,87,0.00,SCT,,0.00,WeatherDisplay:10.37,2013-01-24 14:11:00,
2013-01-24 06:14:00,48.9,45.5,30.12,NNW,347,0.0,0.0,88,0.00,SCT,,0.00,WeatherDisplay:10.37,2013-01-24 14:14:00,
2013-01-24 06:16:00,48.9,45.2,30.12,North,8,3.5,3.5,87,0.00,SCT,,0.00,WeatherDisplay:10.37,2013-01-24 14:16:00,
2013-01-24 06:19:00,48.9,45.5,30.12,North,9,1.1,1.1,88,0.00,SCT,,0.00,WeatherDisplay:10.37,2013-01-24 14:19:00,
2013-01-24 06:21:00,48.9,45.2,30.12,North,8,0.0,0.0,87,0.00,SCT,,0.00,WeatherDisplay:10.37,2013-01-24 14:21:00,
2013-01-24 06:24:00,48.9,45.5,30.12,North,8,0.0,0.0,88,0.00,SCT,,0.00,WeatherDisplay:10.37,2013-01-24 14:24:00,
2013-01-24 06:26:00,48.9,45.5,30.12,North,357,2.3,2.3,88,0.00,SCT,,0.00,WeatherDisplay:10.37,2013-01-24 14:26:00,
2013-01-24 06:29:00,48.9,45.5,30.12,North,352,1.1,1.1,88,0.00,SCT,,0.00,WeatherDisplay:10.37,2013-01-24 14:29:00,
2013-01-24 06:31:00,48.9,45.5,30.12,NNE,21,3.5,3.5,88,0.00,SCT,,0.00,WeatherDisplay:10.37,2013-01-24 14:31:00,
2013-01-24 06:32:00,48.9,45.5,30.12,NNE,21,3.5,3.5,88,0.00,SCT,,0.00,WeatherDisplay:10.37,2013-01-24 14:32:00,
2013-01-24 06:34:00,49.0,45.6,30.12,NNE,19,1.1,1.1,88,0.00,SCT,,0.00,WeatherDisplay:10.37,2013-01-24 14:34:00,
2013-01-24 06:35:00,48.9,45.5,30.12,NNE,15,4.0,4.0,88,0.00,SCT,,0.00,WeatherDisplay:10.37,2013-01-24 14:35:00,
2013-01-24 06:37:00,48.9,45.5,30.12,North,358,4.6,4.6,88,0.00,SCT,,0.00,WeatherDisplay:10.37,2013-01-24 14:37:00,
2013-01-24 06:39:00,48.9,45.5,30.12,NNW,348,2.3,2.3,88,0.00,SCT,,0.00,WeatherDisplay:10.37,2013-01-24 14:39:00,
2013-01-24 06:40:00,49.0,45.6,30.12,NNW,348,2.3,2.3,88,0.00,SCT,,0.00,WeatherDisplay:10.37,2013-01-24 14:40:00,
2013-01-24 06:42:00,49.0,45.6,30.12,NNE,24,1.1,1.1,88,0.00,SCT,,0.00,WeatherDisplay:10.37,2013-01-24 14:42:00,
2013-01-24 06:44:00,49.0,45.3,30.12,NNE,31,2.3,0.0,87,0.00,SCT,,0.00,WeatherDisplay:10.37,2013-01-24 14:44:00,
2013-01-24 06:45:00,49.0,45.6,30.12,NNE,31,0.0,0.0,88,0.00,SCT,,0.00,WeatherDisplay:10.37,2013-01-24 14:45:00,
2013-01-24 06:47:00,49.0,45.3,30.12,NNE,31,0.0,0.0,87,0.00,SCT,,0.00,WeatherDisplay:10.37,2013-01-24 14:47:00,
2013-01-24 06:50:00,49.0,45.6,30.12,NNW,343,0.0,0.1,88,0.00,SCT,,0.00,WeatherDisplay:10.37,2013-01-24 14:50:00,
2013-01-24 06:51:00,49.0,45.6,30.12,North,354,1.1,1.1,88,0.00,SCT,,0.00,WeatherDisplay:10.37,2013-01-24 14:51:00,
2013-01-24 06:52:00,49.0,45.3,30.12,North,354,2.3,2.3,87,0.00,SCT,,0.00,WeatherDisplay:10.37,2013-01-24 14:52:00,
2013-01-24 06:55:00,49.0,45.6,30.12,North,354,0.0,0.0,88,0.00,SCT,,0.00,WeatherDisplay:10.37,2013-01-24 14:55:00,
2013-01-24 06:56:00,49.0,45.6,30.13,North,354,0.0,0.0,88,0.00,SCT,,0.00,WeatherDisplay:10.37,2013-01-24 14:56:00,
2013-01-24 06:57:00,49.0,45.3,30.12,North,354,0.0,0.0,87,0.00,SCT,,0.00,WeatherDisplay:10.37,2013-01-24 14:57:00,
2013-01-24 07:00:00,49.0,45.6,30.13,North,354,0.0,0.0,88,0.00,SCT,,0.00,WeatherDisplay:10.37,2013-01-24 15:00:00,
2013-01-24 07:01:00,49.0,45.6,30.12,North,354,0.0,0.0,88,0.00,SCT,,0.00,WeatherDisplay:10.37,2013-01-24 15:01:00,
2013-01-24 07:02:00,49.1,45.7,30.13,North,354,0.0,0.0,88,0.00,SCT,,0.00,WeatherDisplay:10.37,2013-01-24 15:02:00,
2013-01-24 07:05:00,49.1,45.4,30.13,North,354,0.0,0.0,87,0.00,SCT,,0.00,WeatherDisplay:10.37,2013-01-24 15:05:00,
2013-01-24 07:06:00,49.1,45.4,30.13,North,354,0.0,0.0,87,0.00,SCT,,0.00,WeatherDisplay:10.37,2013-01-24 15:06:00,
2013-01-24 07:07:00,49.0,45.3,30.13,North,354,0.0,0.0,87,0.00,SCT,,0.00,WeatherDisplay:10.37,2013-01-24 15:07:00,
2013-01-24 07:10:00,49.0,45.3,30.13,North,354,1.1,0.0,87,0.00,SCT,,0.00,WeatherDisplay:10.37,2013-01-24 15:10:00,
2013-01-24 07:11:00,49.1,45.4,30.13,North,354,1.1,1.1,87,0.00,SCT,,0.00,WeatherDisplay:10.37,2013-01-24 15:11:00,
2013-01-24 07:12:00,49.1,45.4,30.13,North,354,0.0,0.0,87,0.00,SCT,,0.00,WeatherDisplay:10.37,2013-01-24 15:12:00,
2013-01-24 07:13:00,49.1,45.4,30.13,North,354,0.0,0.0,87,0.00,SCT,,0.00,WeatherDisplay:10.37,2013-01-24 15:13:00,
2013-01-24 07:15:00,49.1,45.7,30.13,North,354,0.0,0.0,88,0.00,SCT,,0.00,WeatherDisplay:10.37,2013-01-24 15:15:00,
2013-01-24 07:16:00,49.1,45.4,30.13,North,354,0.0,0.0,87,0.00,SCT,,0.00,WeatherDisplay:10.37,2013-01-24 15:16:00,
2013-01-24 07:17:00,49.1,45.4,30.13,North,354,0.0,0.0,87,0.00,SCT,,0.00,WeatherDisplay:10.37,2013-01-24 15:17:00,
2013-01-24 07:18:00,49.1,45.4,30.12,North,354,0.0,0.0,87,0.00,SCT,,0.00,WeatherDisplay:10.37,2013-01-24 15:18:00,
2013-01-24 07:20:00,49.1,45.4,30.13,North,354,0.0,0.0,87,0.00,SCT,,0.00,WeatherDisplay:10.37,2013-01-24 15:20:00,
2013-01-24 07:21:00,49.1,45.4,30.13,North,354,0.0,0.0,87,0.00,SCT,,0.00,WeatherDisplay:10.37,2013-01-24 15:21:00,
2013-01-24 07:23:00,49.2,45.5,30.13,North,354,0.0,0.0,87,0.00,SCT,,0.00,WeatherDisplay:10.37,2013-01-24 15:23:00,
2013-01-24 07:24:00,49.2,45.8,30.13,North,354,0.0,0.0,88,0.00,SCT,,0.00,WeatherDisplay:10.37,2013-01-24 15:24:00,
2013-01-24 07:25:00,49.2,45.5,30.13,North,354,0.0,0.0,87,0.00,SCT,,0.00,WeatherDisplay:10.37,2013-01-24 15:25:00,
2013-01-24 07:26:00,49.2,45.5,30.13,North,354,0.0,0.0,87,0.00,SCT,,0.00,WeatherDisplay:10.37,2013-01-24 15:26:00,
2013-01-24 07:28:00,49.2,45.8,30.13,North,354,0.0,0.0,88,0.00,SCT,,0.00,WeatherDisplay:10.37,2013-01-24 15:28:00,
2013-01-24 07:29:00,49.2,45.8,30.13,North,354,0.0,0.0,88,0.00,SCT,,0.00,WeatherDisplay:10.37,2013-01-24 15:29:00,
2013-01-24 07:30:00,49.2,45.5,30.13,North,354,0.0,0.0,87,0.00,SCT,,0.00,WeatherDisplay:10.37,2013-01-24 15:30:00,
2013-01-24 07:31:00,49.2,45.8,30.13,North,354,0.0,0.0,88,0.00,SCT,,0.00,WeatherDisplay:10.37,2013-01-24 15:31:00,
2013-01-24 07:33:00,49.2,45.5,30.13,North,354,0.0,0.0,87,0.00,SCT,,0.00,WeatherDisplay:10.37,2013-01-24 15:33:00,
2013-01-24 07:34:00,49.2,45.8,30.13,North,354,0.0,0.0,88,0.00,SCT,,0.00,WeatherDisplay:10.37,2013-01-24 15:34:00,
2013-01-24 07:35:00,49.2,45.8,30.13,North,354,0.0,0.0,88,0.00,SCT,,0.00,WeatherDisplay:10.37,2013-01-24 15:35:00,
2013-01-24 07:37:00,49.2,45.5,30.13,North,354,0.0,0.0,87,0.00,SCT,,0.00,WeatherDisplay:10.37,2013-01-24 15:37:00,
2013-01-24 07:38:00,49.2,45.5,30.13,North,354,0.0,0.0,87,0.00,SCT,,0.00,WeatherDisplay:10.37,2013-01-24 15:38:00,
2013-01-24 07:39:00,49.2,45.5,30.13,North,354,0.0,0.0,87,0.00,SCT,,0.00,WeatherDisplay:10.37,2013-01-24 15:39:00,
2013-01-24 07:40:00,49.2,45.5,30.13,North,354,0.0,0.0,87,0.00,SCT,,0.00,WeatherDisplay:10.37,2013-01-24 15:40:00,
2013-01-24 07:42:00,49.2,45.5,30.13,North,354,0.0,0.0,87,0.00,SCT,,0.00,WeatherDisplay:10.37,2013-01-24 15:42:00,
2013-01-24 07:43:00,49.2,45.5,30.13,North,354,0.0,0.0,87,0.00,SCT,,0.00,WeatherDisplay:10.37,2013-01-24 15:43:00,
2013-01-24 07:44:00,49.2,45.5,30.13,North,354,0.0,0.0,87,0.00,SCT,,0.00,WeatherDisplay:10.37,2013-01-24 15:44:00,
2013-01-24 07:45:00,49.2,45.5,30.13,North,354,0.0,0.0,87,0.00,SCT,,0.00,WeatherDisplay:10.37,2013-01-24 15:45:00,
2013-01-24 07:47:00,49.2,45.5,30.13,North,354,0.0,0.0,87,0.00,SCT,,0.00,WeatherDisplay:10.37,2013-01-24 15:47:00,
2013-01-24 07:48:00,49.2,45.2,30.13,North,354,0.0,0.0,86,0.00,SCT,,0.00,WeatherDisplay:10.37,2013-01-24 15:48:00,
2013-01-24 07:49:00,49.2,45.5,30.14,North,354,0.0,0.0,87,0.00,SCT,,0.00,WeatherDisplay:10.37,2013-01-24 15:49:00,
2013-01-24 07:50:00,49.2,45.2,30.14,North,354,0.0,0.0,86,0.00,SCT,,0.00,WeatherDisplay:10.37,2013-01-24 15:50:00,
2013-01-24 07:52:00,49.3,45.6,30.14,North,354,0.0,0.0,87,0.00,SCT,,0.00,WeatherDisplay:10.37,2013-01-24 15:52:00,
2013-01-24 07:54:00,49.3,45.6,30.14,North,354,0.0,0.0,87,0.00,SCT,,0.00,WeatherDisplay:10.37,2013-01-24 15:54:00,
2013-01-24 07:56:00,49.3,45.6,30.13,North,354,0.0,0.0,87,0.00,SCT,,0.00,WeatherDisplay:10.37,2013-01-24 15:56:00,
2013-01-24 07:57:00,49.3,45.6,30.13,North,354,0.0,0.0,87,0.00,SCT,,0.00,WeatherDisplay:10.37,2013-01-24 15:57:00,
2013-01-24 07:59:00,49.3,45.6,30.13,North,354,0.0,0.0,87,0.00,SCT,,0.00,WeatherDisplay:10.37,2013-01-24 15:59:00,
2013-01-24 08:01:00,49.3,45.3,30.14,North,354,0.0,0.0,86,0.00,SCT,,0.00,WeatherDisplay:10.37,2013-01-24 16:01:00,
2013-01-24 08:02:00,49.3,45.6,30.13,North,354,0.0,0.0,87,0.00,SCT,,0.00,WeatherDisplay:10.37,2013-01-24 16:02:00,
2013-01-24 08:04:00,49.3,45.6,30.13,North,354,0.0,0.0,87,0.00,SCT,,0.00,WeatherDisplay:10.37,2013-01-24 16:04:00,
2013-01-24 08:05:00,49.3,45.6,30.13,North,354,0.0,0.0,87,0.00,SCT,,0.00,WeatherDisplay:10.37,2013-01-24 16:05:00,
2013-01-24 08:06:00,49.3,45.6,30.13,North,354,0.0,0.0,87,0.00,SCT,,0.00,WeatherDisplay:10.37,2013-01-24 16:06:00,
2013-01-24 08:08:00,49.3,45.6,30.14,North,354,0.0,0.0,87,0.00,SCT,,0.00,WeatherDisplay:10.37,2013-01-24 16:08:00,
2013-01-24 08:09:00,49.3,45.6,30.13,North,354,0.0,0.0,87,0.00,SCT,,0.00,WeatherDisplay:10.37,2013-01-24 16:09:00,
2013-01-24 08:10:00,49.3,45.6,30.13,North,354,0.0,0.0,87,0.00,SCT,,0.00,WeatherDisplay:10.37,2013-01-24 16:10:00,
2013-01-24 08:11:00,49.4,45.7,30.13,North,354,0.0,0.0,87,0.00,SCT,,0.00,WeatherDisplay:10.37,2013-01-24 16:11:00,
2013-01-24 08:13:00,49.4,45.7,30.14,North,354,0.0,0.0,87,0.00,SCT,,0.00,WeatherDisplay:10.37,2013-01-24 16:13:00,
2013-01-24 08:14:00,49.4,45.4,30.14,North,354,0.0,0.0,86,0.00,SCT,,0.00,WeatherDisplay:10.37,2013-01-24 16:14:00,
2013-01-24 08:15:00,49.4,45.7,30.14,North,354,0.0,0.0,87,0.00,SCT,,0.00,WeatherDisplay:10.37,2013-01-24 16:15:00,
2013-01-24 08:16:00,49.4,45.4,30.14,North,354,0.0,0.0,86,0.00,SCT,,0.00,WeatherDisplay:10.37,2013-01-24 16:16:00,
2013-01-24 08:18:00,49.4,45.7,30.14,North,354,0.0,0.0,87,0.00,SCT,,0.00,WeatherDisplay:10.37,2013-01-24 16:18:00,
2013-01-24 08:19:00,49.5,45.8,30.14,North,354,0.0,0.0,87,0.00,SCT,,0.00,WeatherDisplay:10.37,2013-01-24 16:19:00,
2013-01-24 08:20:00,49.5,45.8,30.14,North,354,0.0,0.0,87,0.00,SCT,,0.00,WeatherDisplay:10.37,2013-01-24 16:20:00,
2013-01-24 08:21:00,49.5,45.8,30.14,North,354,0.0,0.0,87,0.00,SCT,,0.00,WeatherDisplay:10.37,2013-01-24 16:21:00,
2013-01-24 08:23:00,49.6,45.9,30.14,NNE,12,1.1,1.1,87,0.00,SCT,,0.00,WeatherDisplay:10.37,2013-01-24 16:23:00,
2013-01-24 08:24:00,49.6,45.9,30.14,NNE,12,0.0,0.0,87,0.00,SCT,,0.00,WeatherDisplay:10.37,2013-01-24 16:24:00,
2013-01-24 08:25:00,49.6,45.9,30.14,NNE,12,0.0,0.0,87,0.00,SCT,,0.00,WeatherDisplay:10.37,2013-01-24 16:25:00,
2013-01-24 08:26:00,49.6,45.9,30.14,NNE,12,0.0,0.0,87,0.00,SCT,,0.00,WeatherDisplay:10.37,2013-01-24 16:26:00,
2013-01-24 08:28:00,49.7,46.0,30.14,NNE,12,0.0,0.0,87,0.00,SCT,,0.00,WeatherDisplay:10.37,2013-01-24 16:28:00,
2013-01-24 08:30:00,49.7,46.0,30.14,North,9,0.0,0.0,87,0.00,SCT,,0.00,WeatherDisplay:10.37,2013-01-24 16:30:00,
2013-01-24 08:32:00,49.8,46.1,30.14,NNE,12,0.0,0.0,87,0.00,SCT,,0.00,WeatherDisplay:10.37,2013-01-24 16:32:00,
2013-01-24 08:33:00,49.8,46.1,30.14,NNE,12,0.0,0.0,87,0.00,SCT,,0.00,WeatherDisplay:10.37,2013-01-24 16:33:00,
2013-01-24 08:35:00,49.8,46.1,30.14,NNE,12,0.0,0.0,87,0.00,SCT,,0.00,WeatherDisplay:10.37,2013-01-24 16:35:00,
2013-01-24 08:37:00,49.8,46.1,30.14,NNE,12,0.0,0.0,87,0.00,SCT,,0.00,WeatherDisplay:10.37,2013-01-24 16:37:00,
2013-01-24 08:38:00,49.9,46.2,30.14,NNE,12,0.0,0.0,87,0.00,SCT,,0.00,WeatherDisplay:10.37,2013-01-24 16:38:00,
2013-01-24 08:40:00,49.9,46.2,30.14,NNE,12,0.0,0.0,87,0.00,SCT,,0.00,WeatherDisplay:10.37,2013-01-24 16:40:00,
2013-01-24 08:42:00,49.9,46.2,30.15,NNE,12,0.0,0.0,87,0.00,SCT,,0.00,WeatherDisplay:10.37,2013-01-24 16:42:00,
2013-01-24 08:43:00,50.0,46.0,30.15,NNE,12,0.0,0.0,86,0.00,SCT,,0.00,WeatherDisplay:10.37,2013-01-24 16:43:00,
2013-01-24 08:45:00,50.1,46.4,30.14,NNE,12,0.0,0.0,87,0.00,SCT,,0.00,WeatherDisplay:10.37,2013-01-24 16:45:00,
2013-01-24 08:46:00,50.1,46.4,30.15,NNE,12,0.0,0.0,87,0.00,SCT,,0.00,WeatherDisplay:10.37,2013-01-24 16:46:00,
2013-01-24 08:47:00,50.2,46.5,30.15,NNE,12,0.0,0.0,87,0.00,SCT,,0.00,WeatherDisplay:10.37,2013-01-24 16:47:00,
2013-01-24 08:49:00,50.2,46.5,30.15,NNE,12,0.0,0.0,87,0.00,SCT,,0.00,WeatherDisplay:10.37,2013-01-24 16:49:00,
2013-01-24 08:50:00,50.3,46.3,30.15,NNE,12,0.0,0.0,86,0.00,SCT,,0.00,WeatherDisplay:10.37,2013-01-24 16:50:00,
2013-01-24 08:51:00,50.3,46.3,30.14,NNE,12,0.0,0.0,86,0.00,SCT,,0.00,WeatherDisplay:10.37,2013-01-24 16:51:00,
2013-01-24 08:52:00,50.4,46.4,30.15,NNE,12,0.0,0.0,86,0.00,SCT,,0.00,WeatherDisplay:10.37,2013-01-24 16:52:00,
2013-01-24 08:54:00,50.4,46.4,30.15,NNE,12,0.0,0.0,86,0.00,SCT,,0.00,WeatherDisplay:10.37,2013-01-24 16:54:00,
2013-01-24 08:55:00,50.5,46.5,30.15,NNE,12,0.0,0.0,86,0.00,SCT,,0.00,WeatherDisplay:10.37,2013-01-24 16:55:00,
2013-01-24 08:56:00,50.5,46.5,30.15,NNE,12,0.0,0.0,86,0.00,SCT,,0.00,WeatherDisplay:10.37,2013-01-24 16:56:00,
2013-01-24 08:57:00,50.5,46.5,30.15,NNE,12,0.0,0.0,86,0.00,SCT,,0.00,WeatherDisplay:10.37,2013-01-24 16:57:00,
2013-01-24 08:59:00,50.6,46.6,30.15,NNE,12,0.0,0.0,86,0.00,SCT,,0.00,WeatherDisplay:10.37,2013-01-24 16:59:00,
2013-01-24 09:00:00,50.6,46.6,30.15,NNE,12,0.0,0.0,86,0.00,SCT,,0.00,WeatherDisplay:10.37,2013-01-24 17:00:00,
2013-01-24 09:01:00,50.6,46.6,30.15,NNE,12,0.0,0.0,86,0.00,SCT,,0.00,WeatherDisplay:10.37,2013-01-24 17:01:00,
2013-01-24 09:02:00,50.7,46.7,30.15,NNE,12,0.0,0.0,86,0.00,SCT,,0.00,WeatherDisplay:10.37,2013-01-24 17:02:00,
2013-01-24 09:04:00,50.7,46.7,30.15,NNE,12,0.0,0.0,86,0.00,SCT,,0.00,WeatherDisplay:10.37,2013-01-24 17:04:00,
2013-01-24 09:05:00,50.8,46.8,30.16,NNE,12,0.0,0.0,86,0.00,SCT,,0.00,WeatherDisplay:10.37,2013-01-24 17:05:00,
2013-01-24 09:06:00,50.8,46.8,30.16,NNE,12,0.0,0.0,86,0.00,SCT,,0.00,WeatherDisplay:10.37,2013-01-24 17:06:00,
2013-01-24 09:07:00,50.8,46.8,30.16,NNE,12,0.0,0.0,86,0.00,SCT,,0.00,WeatherDisplay:10.37,2013-01-24 17:07:00,
2013-01-24 09:09:00,50.9,46.6,30.16,NNE,12,0.0,0.0,85,0.00,SCT,,0.00,WeatherDisplay:10.37,2013-01-24 17:09:00,
2013-01-24 09:10:00,50.9,46.9,30.16,NNE,12,0.0,0.0,86,0.00,SCT,,0.00,WeatherDisplay:10.37,2013-01-24 17:10:00,
2013-01-24 09:11:00,51.0,47.0,30.16,NNE,12,0.0,0.0,86,0.00,SCT,,0.00,WeatherDisplay:10.37,2013-01-24 17:11:00,
2013-01-24 09:12:00,51.1,47.1,30.16,NNE,12,0.0,0.0,86,0.00,SCT,,0.00,WeatherDisplay:10.37,2013-01-24 17:12:00,
2013-01-24 09:14:00,51.1,46.7,30.16,NNE,12,0.0,0.0,85,0.00,SCT,,0.00,WeatherDisplay:10.37,2013-01-24 17:14:00,
2013-01-24 09:15:00,51.2,46.8,30.16,NNE,12,0.0,0.0,85,0.00,SCT,,0.00,WeatherDisplay:10.37,2013-01-24 17:15:00,
2013-01-24 09:16:00,51.2,46.8,30.16,NNE,12,0.0,0.0,85,0.00,SCT,,0.00,WeatherDisplay:10.37,2013-01-24 17:16:00,
2013-01-24 09:17:00,51.2,46.8,30.17,NNE,12,0.0,0.0,85,0.00,SCT,,0.00,WeatherDisplay:10.37,2013-01-24 17:17:00,
2013-01-24 09:19:00,51.3,46.9,30.16,NNE,12,0.0,0.0,85,0.00,SCT,,0.00,WeatherDisplay:10.37,2013-01-24 17:19:00,
2013-01-24 09:21:00,51.3,46.6,30.16,NNE,12,0.0,0.0,84,0.00,SCT,,0.00,WeatherDisplay:10.37,2013-01-24 17:21:00,
2013-01-24 09:23:00,51.4,47.0,30.16,NNE,12,0.0,0.0,85,0.00,SCT,,0.00,WeatherDisplay:10.37,2013-01-24 17:23:00,
2013-01-24 09:24:00,51.5,46.8,30.17,NNE,12,0.0,0.0,84,0.00,SCT,,0.00,WeatherDisplay:10.37,2013-01-24 17:24:00,
2013-01-24 09:26:00,51.6,46.9,30.16,NNE,12,0.0,0.0,84,0.00,SCT,,0.00,WeatherDisplay:10.37,2013-01-24 17:26:00,
2013-01-24 09:27:00,51.6,46.9,30.16,NNE,12,0.0,0.0,84,0.00,SCT,,0.00,WeatherDisplay:10.37,2013-01-24 17:27:00,
2013-01-24 09:28:00,51.7,47.0,30.17,NNE,12,0.0,0.0,84,0.00,SCT,,0.00,WeatherDisplay:10.37,2013-01-24 17:28:00,
2013-01-24 09:29:00,51.8,47.1,30.17,NNE,12,0.0,0.0,84,0.00,SCT,,0.00,WeatherDisplay:10.37,2013-01-24 17:29:00,
2013-01-24 09:31:00,51.8,47.1,30.17,NNE,12,0.0,0.0,84,0.00,SCT,,0.00,WeatherDisplay:10.37,2013-01-24 17:31:00,
2013-01-24 09:32:00,51.9,46.9,30.17,North,10,0.0,0.0,83,0.00,SCT,,0.00,WeatherDisplay:10.37,2013-01-24 17:32:00,
2013-01-24 09:33:00,51.9,47.2,30.17,North,10,0.0,0.0,84,0.00,SCT,,0.00,WeatherDisplay:10.37,2013-01-24 17:33:00,
2013-01-24 09:34:00,51.9,47.2,30.17,North,10,0.0,0.0,84,0.00,SCT,,0.00,WeatherDisplay:10.37,2013-01-24 17:34:00,
2013-01-24 09:36:00,52.0,47.3,30.17,North,10,0.0,0.0,84,0.00,SCT,,0.00,WeatherDisplay:10.37,2013-01-24 17:36:00,
2013-01-24 09:37:00,52.0,47.0,30.17,North,10,0.0,0.0,83,0.00,SCT,,0.00,WeatherDisplay:10.37,2013-01-24 17:37:00,
2013-01-24 09:38:00,52.1,47.1,30.17,North,10,0.0,0.0,83,0.00,SCT,,0.00,WeatherDisplay:10.37,2013-01-24 17:38:00,
2013-01-24 09:40:00,52.1,47.1,30.17,North,10,0.0,0.0,83,0.00,SCT,,0.00,WeatherDisplay:10.37,2013-01-24 17:40:00,
2013-01-24 09:41:00,52.2,47.2,30.17,North,10,0.0,0.0,83,0.00,SCT,,0.00,WeatherDisplay:10.37,2013-01-24 17:41:00,
2013-01-24 09:42:00,52.2,46.9,30.17,North,10,0.0,0.0,82,0.00,SCT,,0.00,WeatherDisplay:10.37,2013-01-24 17:42:00,
2013-01-24 09:43:00,52.2,47.2,30.17,North,10,0.0,0.0,83,0.00,SCT,,0.00,WeatherDisplay:10.37,2013-01-24 17:43:00,
2013-01-24 09:53:00,52.3,47.0,30.18,WNW,302,0.0,0.0,82,0.00,CLR,,0.00,WeatherDisplay:10.37,2013-01-24 17:53:00,
2013-01-24 09:54:00,52.3,47.0,30.18,WNW,302,0.0,0.0,82,0.00,CLR,,0.00,WeatherDisplay:10.37,2013-01-24 17:54:00,
2013-01-24 09:59:00,52.2,46.9,30.18,WNW,302,0.0,0.0,82,0.00,SCT,,0.00,WeatherDisplay:10.37,2013-01-24 17:59:00,
2013-01-24 10:04:00,52.2,46.9,30.18,WNW,302,0.0,0.0,82,0.00,SCT,,0.00,WeatherDisplay:10.37,2013-01-24 18:04:00,
2013-01-24 10:09:00,52.1,46.8,30.18,WNW,302,0.0,0.0,82,0.00,SCT,,0.00,WeatherDisplay:10.37,2013-01-24 18:09:00,
2013-01-24 10:14:00,52.2,46.9,30.18,NNE,19,0.0,0.0,82,0.00,SCT,,0.00,WeatherDisplay:10.37,2013-01-24 18:14:00,
2013-01-24 10:15:00,52.2,46.9,30.19,NNE,19,0.0,0.0,82,0.00,SCT,,0.00,WeatherDisplay:10.37,2013-01-24 18:15:00,
2013-01-24 10:19:00,52.2,46.9,30.18,NNE,19,0.0,0.0,82,0.00,SCT,,0.00,WeatherDisplay:10.37,2013-01-24 18:19:00,
2013-01-24 10:20:00,52.2,46.9,30.18,NNE,19,0.0,0.0,82,0.00,SCT,,0.00,WeatherDisplay:10.37,2013-01-24 18:20:00,
2013-01-24 10:24:00,52.3,47.0,30.18,NNE,19,0.0,0.0,82,0.00,SCT,,0.00,WeatherDisplay:10.37,2013-01-24 18:24:00,
2013-01-24 10:25:00,52.2,46.9,30.18,NNE,19,0.0,0.0,82,0.00,SCT,,0.00,WeatherDisplay:10.37,2013-01-24 18:25:00,
2013-01-24 10:29:00,52.3,47.0,30.18,NW,313,1.0,1.0,82,0.00,SCT,,0.00,WeatherDisplay:10.37,2013-01-24 18:29:00,
2013-01-24 10:30:00,52.3,47.0,30.18,NW,308,1.1,1.1,82,0.00,SCT,,0.00,WeatherDisplay:10.37,2013-01-24 18:30:00,
2013-01-24 10:34:00,52.4,46.4,30.19,NW,306,1.1,0.0,80,0.00,SCT,,0.00,WeatherDisplay:10.37,2013-01-24 18:34:00,
2013-01-24 10:35:00,52.4,46.7,30.18,NW,306,0.0,0.0,81,0.00,SCT,,0.00,WeatherDisplay:10.37,2013-01-24 18:35:00,
2013-01-24 10:39:00,52.5,46.8,30.18,NW,306,0.0,0.0,81,0.00,SCT,,0.00,WeatherDisplay:10.37,2013-01-24 18:39:00,
2013-01-24 10:40:00,52.5,46.8,30.18,NW,306,0.0,0.0,81,0.00,SCT,,0.00,WeatherDisplay:10.37,2013-01-24 18:40:00,
2013-01-24 10:44:00,52.7,47.0,30.19,NW,306,0.0,0.0,81,0.00,SCT,,0.00,WeatherDisplay:10.37,2013-01-24 18:44:00,
2013-01-24 10:45:00,52.7,46.4,30.18,NW,306,1.1,1.1,79,0.00,SCT,,0.00,WeatherDisplay:10.37,2013-01-24 18:45:00,
2013-01-24 10:50:00,52.9,46.6,30.18,NNW,327,0.0,0.0,79,0.00,SCT,,0.00,WeatherDisplay:10.37,2013-01-24 18:50:00,
2013-01-24 10:55:00,53.0,46.3,30.19,NNW,327,0.0,0.0,78,0.00,SCT,,0.00,WeatherDisplay:10.37,2013-01-24 18:55:00,
2013-01-24 11:00:00,53.2,46.5,30.19,NW,313,2.3,0.0,78,0.00,SCT,,0.00,WeatherDisplay:10.37,2013-01-24 19:00:00,
2013-01-24 11:01:00,53.2,46.5,30.18,NW,312,2.3,2.3,78,0.00,SCT,,0.00,WeatherDisplay:10.37,2013-01-24 19:01:00,
2013-01-24 11:05:00,53.2,46.9,30.18,NW,318,0.0,2.0,79,0.00,SCT,,0.00,WeatherDisplay:10.37,2013-01-24 19:05:00,
2013-01-24 11:06:00,53.3,46.6,30.18,NW,312,0.0,0.0,78,0.00,SCT,,0.00,WeatherDisplay:10.37,2013-01-24 19:06:00,
2013-01-24 11:10:00,53.4,46.7,30.19,NW,312,0.0,0.0,78,0.00,SCT,,0.00,WeatherDisplay:10.37,2013-01-24 19:10:00,
2013-01-24 11:11:00,53.4,46.7,30.18,NW,312,0.0,0.0,78,0.00,SCT,,0.00,WeatherDisplay:10.37,2013-01-24 19:11:00,
2013-01-24 11:15:00,53.5,46.5,30.18,NW,312,0.0,0.0,77,0.00,SCT,,0.00,WeatherDisplay:10.37,2013-01-24 19:15:00,
2013-01-24 11:16:00,53.5,46.5,30.18,NW,312,0.0,0.0,77,0.00,SCT,,0.00,WeatherDisplay:10.37,2013-01-24 19:16:00,
2013-01-24 11:20:00,53.5,46.5,30.18,WNW,292,0.0,0.0,77,0.00,SCT,,0.00,WeatherDisplay:10.37,2013-01-24 19:20:00,
2013-01-24 11:21:00,53.5,46.8,30.18,WNW,292,0.0,0.0,78,0.00,SCT,,0.00,WeatherDisplay:10.37,2013-01-24 19:21:00,
2013-01-24 11:25:00,53.7,46.3,30.18,WNW,292,0.0,0.0,76,0.00,SCT,,0.00,WeatherDisplay:10.37,2013-01-24 19:25:00,
2013-01-24 11:26:00,53.7,46.3,30.18,WNW,292,0.0,0.0,76,0.00,SCT,,0.00,WeatherDisplay:10.37,2013-01-24 19:26:00,
2013-01-24 11:27:00,53.7,46.3,30.18,WNW,292,0.0,0.0,76,0.00,SCT,,0.00,WeatherDisplay:10.37,2013-01-24 19:27:00,
2013-01-24 11:30:00,53.8,46.8,30.18,WNW,293,0.0,0.0,77,0.00,SCT,,0.00,WeatherDisplay:10.37,2013-01-24 19:30:00,
2013-01-24 11:31:00,53.8,46.8,30.18,WNW,293,0.0,0.0,77,0.00,SCT,,0.00,WeatherDisplay:10.37,2013-01-24 19:31:00,
2013-01-24 11:32:00,53.8,46.8,30.18,WNW,293,0.0,0.0,77,0.00,SCT,,0.00,WeatherDisplay:10.37,2013-01-24 19:32:00,
2013-01-24 11:36:00,53.8,46.8,30.18,WNW,294,0.0,0.0,77,0.00,SCT,,0.00,WeatherDisplay:10.37,2013-01-24 19:36:00,
2013-01-24 11:37:00,53.9,46.5,30.18,WNW,294,0.0,0.0,76,0.00,SCT,,0.00,WeatherDisplay:10.37,2013-01-24 19:37:00,
2013-01-24 11:41:00,54.0,46.6,30.18,WNW,296,2.0,2.0,76,0.00,SCT,,0.00,WeatherDisplay:10.37,2013-01-24 19:41:00,
2013-01-24 11:42:00,54.0,46.6,30.18,NW,311,2.3,2.3,76,0.00,SCT,,0.00,WeatherDisplay:10.37,2013-01-24 19:42:00,
2013-01-24 11:46:00,54.1,46.7,30.18,NW,311,0.0,0.0,76,0.00,SCT,,0.00,WeatherDisplay:10.37,2013-01-24 19:46:00,
2013-01-24 11:47:00,54.1,46.7,30.17,WNW,296,2.0,2.0,76,0.00,SCT,,0.00,WeatherDisplay:10.37,2013-01-24 19:47:00,
2013-01-24 11:51:00,54.2,46.8,30.17,WNW,296,0.0,0.0,76,0.00,SCT,,0.00,WeatherDisplay:10.37,2013-01-24 19:51:00,
2013-01-24 11:52:00,54.2,46.8,30.17,WNW,296,1.0,1.0,76,0.00,SCT,,0.00,WeatherDisplay:10.37,2013-01-24 19:52:00,
2013-01-24 11:53:00,54.2,46.8,30.17,WNW,296,1.1,1.1,76,0.00,SCT,,0.00,WeatherDisplay:10.37,2013-01-24 19:53:00,
2013-01-24 11:57:00,54.3,46.5,30.17,WNW,296,0.0,0.3,75,0.00,SCT,,0.00,WeatherDisplay:10.37,2013-01-24 19:57:00,
2013-01-24 11:58:00,54.3,46.5,30.17,WNW,296,2.3,2.3,75,0.00,SCT,,0.00,WeatherDisplay:10.37,2013-01-24 19:58:00,
2013-01-24 12:02:00,54.4,47.0,30.17,WNW,296,0.0,0.0,76,0.00,SCT,,0.00,WeatherDisplay:10.37,2013-01-24 20:02:00,
2013-01-24 12:03:00,54.4,46.6,30.17,WNW,296,0.0,0.1,75,0.00,SCT,,0.00,WeatherDisplay:10.37,2013-01-24 20:03:00,
2013-01-24 12:07:00,54.5,46.7,30.17,WNW,296,1.1,0.0,75,0.00,SCT,,0.00,WeatherDisplay:10.37,2013-01-24 20:07:00,
2013-01-24 12:08:00,54.5,46.7,30.17,WNW,296,0.0,0.0,75,0.00,SCT,,0.00,WeatherDisplay:10.37,2013-01-24 20:08:00,
2013-01-24 12:12:00,54.6,46.5,30.16,WNW,296,1.1,0.0,74,0.00,SCT,,0.00,WeatherDisplay:10.37,2013-01-24 20:12:00,
2013-01-24 12:13:00,54.6,46.8,30.16,WNW,296,0.0,0.0,75,0.00,SCT,,0.00,WeatherDisplay:10.37,2013-01-24 20:13:00,
2013-01-24 12:17:00,54.7,46.6,30.16,WNW,296,1.1,1.1,74,0.00,SCT,,0.00,WeatherDisplay:10.37,2013-01-24 20:17:00,
2013-01-24 12:18:00,54.7,46.6,30.16,WNW,296,0.0,0.0,74,0.00,SCT,,0.00,WeatherDisplay:10.37,2013-01-24 20:18:00,
2013-01-24 12:19:00,54.8,46.7,30.16,WNW,296,0.0,0.0,74,0.00,SCT,,0.00,WeatherDisplay:10.37,2013-01-24 20:19:00,
2013-01-24 12:22:00,54.8,46.7,30.16,WNW,296,0.0,0.0,74,0.00,SCT,,0.00,WeatherDisplay:10.37,2013-01-24 20:22:00,
2013-01-24 12:23:00,54.8,46.7,30.16,WNW,296,0.0,0.0,74,0.00,SCT,,0.00,WeatherDisplay:10.37,2013-01-24 20:23:00,
2013-01-24 12:24:00,54.9,47.1,30.16,WNW,296,0.0,0.0,75,0.00,SCT,,0.00,WeatherDisplay:10.37,2013-01-24 20:24:00,
2013-01-24 12:28:00,55.0,46.9,30.16,WNW,296,1.1,1.1,74,0.00,SCT,,0.00,WeatherDisplay:10.37,2013-01-24 20:28:00,
2013-01-24 12:29:00,55.0,46.9,30.16,WNW,296,2.3,2.3,74,0.00,SCT,,0.00,WeatherDisplay:10.37,2013-01-24 20:29:00,
2013-01-24 12:33:00,55.1,47.0,30.16,WNW,296,0.0,0.0,74,0.00,SCT,,0.00,WeatherDisplay:10.37,2013-01-24 20:33:00,
2013-01-24 12:35:00,55.1,47.3,30.16,WNW,296,0.0,0.0,75,0.00,SCT,,0.00,WeatherDisplay:10.37,2013-01-24 20:35:00,
2013-01-24 12:38:00,55.3,47.5,30.16,WNW,296,1.1,1.1,75,0.00,SCT,,0.00,WeatherDisplay:10.37,2013-01-24 20:38:00,
2013-01-24 12:40:00,55.3,46.8,30.16,WNW,296,2.3,2.3,73,0.00,SCT,,0.00,WeatherDisplay:10.37,2013-01-24 20:40:00,
2013-01-24 12:43:00,55.4,46.9,30.15,WNW,296,0.0,0.0,73,0.00,SCT,,0.00,WeatherDisplay:10.37,2013-01-24 20:43:00,
2013-01-24 12:44:00,55.4,47.2,30.15,WNW,296,0.0,0.0,74,0.00,SCT,,0.00,WeatherDisplay:10.37,2013-01-24 20:44:00,
2013-01-24 12:45:00,55.4,47.2,30.15,WNW,296,0.0,0.0,74,0.00,SCT,,0.00,WeatherDisplay:10.37,2013-01-24 20:45:00,
2013-01-24 12:48:00,55.5,47.3,30.15,North,360,3.5,3.5,74,0.00,SCT,,0.00,WeatherDisplay:10.37,2013-01-24 20:48:00,
2013-01-24 12:50:00,55.6,47.4,30.15,North,360,2.3,2.3,74,0.00,SCT,,0.00,WeatherDisplay:10.37,2013-01-24 20:50:00,
2013-01-24 12:54:00,55.6,47.1,30.15,North,350,1.1,0.0,73,0.00,SCT,,0.00,WeatherDisplay:10.37,2013-01-24 20:54:00,
2013-01-24 12:55:00,55.6,47.1,30.15,North,350,0.0,0.0,73,0.00,SCT,,0.00,WeatherDisplay:10.37,2013-01-24 20:55:00,
2013-01-24 12:56:00,55.7,47.2,30.15,North,350,0.0,0.0,73,0.00,SCT,,0.00,WeatherDisplay:10.37,2013-01-24 20:56:00,
2013-01-24 12:59:00,55.8,47.3,30.15,North,350,1.1,0.0,73,0.00,SCT,,0.00,WeatherDisplay:10.37,2013-01-24 20:59:00,
2013-01-24 13:00:00,55.8,47.3,30.15,North,350,1.1,0.0,73,0.00,SCT,,0.00,WeatherDisplay:10.37,2013-01-24 21:00:00,
2013-01-24 13:01:00,55.9,47.7,30.15,North,350,0.0,0.0,74,0.00,SCT,,0.00,WeatherDisplay:10.37,2013-01-24 21:01:00,
2013-01-24 13:04:00,55.9,47.4,30.15,North,350,0.0,0.0,73,0.00,SCT,,0.00,WeatherDisplay:10.37,2013-01-24 21:04:00,
2013-01-24 13:05:00,56.0,47.5,30.15,NNW,344,0.0,0.0,73,0.00,SCT,,0.00,WeatherDisplay:10.37,2013-01-24 21:05:00,
2013-01-24 13:06:00,56.0,47.5,30.15,NNW,344,0.0,0.0,73,0.00,SCT,,0.00,WeatherDisplay:10.37,2013-01-24 21:06:00,
2013-01-24 13:09:00,56.0,47.1,30.15,North,9,1.1,1.1,72,0.00,SCT,,0.00,WeatherDisplay:10.37,2013-01-24 21:09:00,
2013-01-24 13:10:00,56.0,47.5,30.15,North,9,2.3,2.3,73,0.00,SCT,,0.00,WeatherDisplay:10.37,2013-01-24 21:10:00,
2013-01-24 13:11:00,56.0,47.5,30.15,North,8,1.1,1.1,73,0.00,SCT,,0.00,WeatherDisplay:10.37,2013-01-24 21:11:00,
2013-01-24 13:14:00,56.0,47.5,30.14,North,9,1.1,1.1,73,0.00,SCT,,0.00,WeatherDisplay:10.37,2013-01-24 21:14:00,
2013-01-24 13:15:00,56.0,47.5,30.15,North,9,2.0,2.0,73,0.00,SCT,,0.00,WeatherDisplay:10.37,2013-01-24 21:15:00,
2013-01-24 13:17:00,56.0,47.5,30.15,NNE,27,3.5,3.5,73,0.00,SCT,,0.00,WeatherDisplay:10.37,2013-01-24 21:17:00,
2013-01-24 13:19:00,56.0,47.5,30.14,North,6,3.5,3.5,73,0.00,SCT,,0.00,WeatherDisplay:10.37,2013-01-24 21:19:00,
2013-01-24 13:20:00,56.0,47.5,30.14,North,360,3.5,3.5,73,0.00,SCT,,0.00,WeatherDisplay:10.37,2013-01-24 21:20:00,
2013-01-24 13:22:00,56.0,47.5,30.15,North,11,2.3,2.3,73,0.00,SCT,,0.00,WeatherDisplay:10.37,2013-01-24 21:22:00,
2013-01-24 13:24:00,56.0,47.5,30.14,North,3,2.3,2.3,73,0.00,SCT,,0.00,WeatherDisplay:10.37,2013-01-24 21:24:00,
2013-01-24 13:25:00,56.0,47.5,30.14,North,353,2.3,2.3,73,0.00,SCT,,0.00,WeatherDisplay:10.37,2013-01-24 21:25:00,
2013-01-24 13:27:00,56.0,47.5,30.14,North,352,0.0,0.0,73,0.00,SCT,,0.00,WeatherDisplay:10.37,2013-01-24 21:27:00,
2013-01-24 13:29:00,56.0,47.8,30.14,NNE,12,2.0,2.0,74,0.00,SCT,,0.00,WeatherDisplay:10.37,2013-01-24 21:29:00,
2013-01-24 13:30:00,56.0,47.8,30.14,North,11,4.0,4.0,74,0.00,SCT,,0.00,WeatherDisplay:10.37,2013-01-24 21:30:00,
2013-01-24 13:33:00,56.0,47.8,30.14,North,351,2.3,2.3,74,0.00,SCT,,0.00,WeatherDisplay:10.37,2013-01-24 21:33:00,
2013-01-24 13:34:00,56.0,47.8,30.14,NNE,19,3.5,3.5,74,0.00,SCT,,0.00,WeatherDisplay:10.37,2013-01-24 21:34:00,
2013-01-24 13:35:00,56.0,47.8,30.14,NNE,17,3.5,3.5,74,0.00,SCT,,0.00,WeatherDisplay:10.37,2013-01-24 21:35:00,
2013-01-24 13:38:00,56.0,48.2,30.14,NNE,17,3.5,3.5,75,0.00,SCT,,0.00,WeatherDisplay:10.37,2013-01-24 21:38:00,
2013-01-24 13:39:00,56.0,48.5,30.14,North,11,3.5,3.5,76,0.00,SCT,,0.00,WeatherDisplay:10.37,2013-01-24 21:39:00,
2013-01-24 13:40:00,56.0,48.2,30.14,NNE,24,3.5,3.5,75,0.00,SCT,,0.00,WeatherDisplay:10.37,2013-01-24 21:40:00,
2013-01-24 13:43:00,56.0,48.2,30.14,North,351,2.3,2.3,75,0.00,SCT,,0.00,WeatherDisplay:10.37,2013-01-24 21:43:00,
2013-01-24 13:44:00,56.0,48.2,30.14,NNE,16,5.8,5.8,75,0.00,SCT,,0.00,WeatherDisplay:10.37,2013-01-24 21:44:00,
2013-01-24 13:45:00,56.0,48.2,30.14,NNE,17,3.5,3.5,75,0.00,SCT,,0.00,WeatherDisplay:10.37,2013-01-24 21:45:00,
2013-01-24 13:48:00,55.9,48.1,30.14,North,1,6.0,6.0,75,0.00,SCT,,0.00,WeatherDisplay:10.37,2013-01-24 21:48:00,
2013-01-24 13:50:00,55.9,48.1,30.14,NNE,27,5.8,5.8,75,0.00,SCT,,0.00,WeatherDisplay:10.37,2013-01-24 21:50:00,
2013-01-24 13:54:00,55.9,48.1,30.14,North,4,3.5,3.5,75,0.00,SCT,,0.00,WeatherDisplay:10.37,2013-01-24 21:54:00,
2013-01-24 13:55:00,55.9,48.4,30.14,North,7,3.5,3.5,76,0.00,SCT,,0.00,WeatherDisplay:10.37,2013-01-24 21:55:00,
2013-01-24 13:56:00,55.9,48.4,30.14,North,11,3.5,3.5,76,0.00,SCT,,0.00,WeatherDisplay:10.37,2013-01-24 21:56:00,
2013-01-24 13:59:00,55.9,48.4,30.14,North,5,4.0,4.0,76,0.00,SCT,,0.00,WeatherDisplay:10.37,2013-01-24 21:59:00,
2013-01-24 14:00:00,55.9,48.1,30.14,North,8,5.0,5.0,75,0.00,SCT,,0.00,WeatherDisplay:10.37,2013-01-24 22:00:00,
2013-01-24 14:01:00,55.9,48.1,30.14,North,2,5.8,5.8,75,0.00,SCT,,0.00,WeatherDisplay:10.37,2013-01-24 22:01:00,
2013-01-24 14:05:00,55.8,48.3,30.14,NNE,14,2.3,2.3,76,0.00,SCT,,0.00,WeatherDisplay:10.37,2013-01-24 22:05:00,
2013-01-24 14:06:00,55.8,48.7,30.14,North,11,2.3,2.3,77,0.00,SCT,,0.00,WeatherDisplay:10.37,2013-01-24 22:06:00,
2013-01-24 14:10:00,55.8,48.7,30.14,NNE,13,3.5,3.5,77,0.00,SCT,,0.00,WeatherDisplay:10.37,2013-01-24 22:10:00,
2013-01-24 14:11:00,55.8,48.7,30.14,NNE,13,3.5,3.5,77,0.00,SCT,,0.00,WeatherDisplay:10.37,2013-01-24 22:11:00,
2013-01-24 14:15:00,55.8,49.0,30.14,North,7,3.5,3.5,78,0.00,SCT,,0.00,WeatherDisplay:10.37,2013-01-24 22:15:00,
2013-01-24 14:16:00,55.8,49.0,30.14,North,8,5.0,5.0,78,0.00,SCT,,0.00,WeatherDisplay:10.37,2013-01-24 22:16:00,
2013-01-24 14:20:00,55.7,49.3,30.14,NNE,18,3.5,3.5,79,0.00,SCT,,0.00,WeatherDisplay:10.37,2013-01-24 22:20:00,
2013-01-24 14:21:00,55.7,48.9,30.14,NNE,18,3.5,3.5,78,0.00,SCT,,0.00,WeatherDisplay:10.37,2013-01-24 22:21:00,
2013-01-24 14:25:00,55.7,49.3,30.14,NNE,25,2.3,0.0,79,0.00,SCT,,0.00,WeatherDisplay:10.37,2013-01-24 22:25:00,
2013-01-24 14:26:00,55.7,49.3,30.14,NNE,25,3.0,3.0,79,0.00,SCT,,0.00,WeatherDisplay:10.37,2013-01-24 22:26:00,
2013-01-24 14:27:00,55.7,49.3,30.14,NNE,27,2.0,2.0,79,0.00,SCT,,0.00,WeatherDisplay:10.37,2013-01-24 22:27:00,
2013-01-24 14:30:00,55.7,48.9,30.14,NNE,20,1.1,0.0,78,0.00,SCT,,0.00,WeatherDisplay:10.37,2013-01-24 22:30:00,
2013-01-24 14:31:00,55.7,48.9,30.14,North,11,1.1,1.1,78,0.00,SCT,,0.00,WeatherDisplay:10.37,2013-01-24 22:31:00,
2013-01-24 14:32:00,55.7,48.9,30.14,North,11,1.1,1.1,78,0.00,SCT,,0.00,WeatherDisplay:10.37,2013-01-24 22:32:00,
2013-01-24 14:35:00,55.6,49.2,30.14,North,9,2.0,2.0,79,0.01,RA,,0.01,WeatherDisplay:10.37,2013-01-24 22:35:00,
2013-01-24 14:36:00,55.6,48.8,30.14,NNE,19,3.5,3.5,78,0.01,RA,,0.01,WeatherDisplay:10.37,2013-01-24 22:36:00,
2013-01-24 14:37:00,55.6,48.8,30.14,NNE,18,3.5,3.5,78,0.01,RA,,0.01,WeatherDisplay:10.37,2013-01-24 22:37:00,
2013-01-24 14:41:00,55.6,48.8,30.15,North,355,3.5,0.0,78,0.01,RA,,0.01,WeatherDisplay:10.37,2013-01-24 22:41:00,
2013-01-24 14:42:00,55.6,49.2,30.15,North,355,1.1,1.1,79,0.01,RA,,0.01,WeatherDisplay:10.37,2013-01-24 22:42:00,
2013-01-24 14:43:00,55.6,49.2,30.15,North,355,1.1,1.1,79,0.01,RA,,0.01,WeatherDisplay:10.37,2013-01-24 22:43:00,
2013-01-24 14:46:00,55.5,49.1,30.15,NNE,25,3.5,3.5,79,0.01,SCT,,0.01,WeatherDisplay:10.37,2013-01-24 22:46:00,
2013-01-24 14:47:00,55.5,49.1,30.15,North,360,4.6,4.6,79,0.01,SCT,,0.01,WeatherDisplay:10.37,2013-01-24 22:47:00,
2013-01-24 14:48:00,55.4,49.0,30.15,NNE,17,3.5,3.5,79,0.01,SCT,,0.01,WeatherDisplay:10.37,2013-01-24 22:48:00,
2013-01-24 14:51:00,55.3,48.9,30.15,NE,34,3.5,3.5,79,0.01,SCT,,0.01,WeatherDisplay:10.37,2013-01-24 22:51:00,
2013-01-24 14:52:00,55.3,49.2,30.15,North,3,3.5,3.5,80,0.01,SCT,,0.01,WeatherDisplay:10.37,2013-01-24 22:52:00,
2013-01-24 14:53:00,55.3,49.2,30.15,NNE,13,3.5,3.5,80,0.01,SCT,,0.01,WeatherDisplay:10.37,2013-01-24 22:53:00,
2013-01-24 14:56:00,55.3,49.2,30.15,North,10,4.6,4.6,80,0.01,SCT,,0.01,WeatherDisplay:10.37,2013-01-24 22:56:00,
2013-01-24 14:57:00,55.2,49.1,30.15,NNE,13,3.5,3.5,80,0.01,SCT,,0.01,WeatherDisplay:10.37,2013-01-24 22:57:00,
2013-01-24 14:58:00,55.2,49.5,30.15,North,349,3.5,3.5,81,0.01,SCT,,0.01,WeatherDisplay:10.37,2013-01-24 22:58:00,
2013-01-24 15:01:00,55.1,49.4,30.15,NNE,16,2.3,2.3,81,0.01,SCT,,0.02,WeatherDisplay:10.37,2013-01-24 23:01:00,
2013-01-24 15:02:00,55.2,49.5,30.15,NNE,21,2.3,2.3,81,0.02,RA,,0.02,WeatherDisplay:10.37,2013-01-24 23:02:00,
2013-01-24 15:03:00,55.1,49.0,30.15,NNE,21,2.3,2.3,80,0.02,RA,,0.02,WeatherDisplay:10.37,2013-01-24 23:03:00,
2013-01-24 15:06:00,55.1,49.4,30.15,NNE,16,3.5,3.5,81,0.02,RA,,0.02,WeatherDisplay:10.37,2013-01-24 23:06:00,
2013-01-24 15:07:00,55.1,49.4,30.15,NNE,17,3.5,3.5,81,0.02,RA,,0.02,WeatherDisplay:10.37,2013-01-24 23:07:00,
2013-01-24 15:08:00,55.1,49.4,30.15,NNE,17,3.5,3.5,81,0.02,RA,,0.02,WeatherDisplay:10.37,2013-01-24 23:08:00,
2013-01-24 15:12:00,55.1,49.4,30.15,North,10,2.3,2.3,81,0.02,RA,,0.02,WeatherDisplay:10.37,2013-01-24 23:12:00,
2013-01-24 15:14:00,55.1,49.4,30.15,North,10,2.3,2.3,81,0.02,SCT,,0.02,WeatherDisplay:10.37,2013-01-24 23:14:00,
2013-01-24 15:17:00,55.1,49.4,30.15,North,10,2.0,2.0,81,0.02,SCT,,0.02,WeatherDisplay:10.37,2013-01-24 23:17:00,
2013-01-24 15:19:00,55.0,49.3,30.15,North,10,2.3,2.3,81,0.02,SCT,,0.02,WeatherDisplay:10.37,2013-01-24 23:19:00,
2013-01-24 15:22:00,55.0,49.3,30.15,North,10,2.3,2.3,81,0.03,RA,,0.03,WeatherDisplay:10.37,2013-01-24 23:22:00,
2013-01-24 15:23:00,55.0,49.3,30.15,North,10,2.3,2.3,81,0.03,RA,,0.03,WeatherDisplay:10.37,2013-01-24 23:23:00,
2013-01-24 15:24:00,55.0,49.6,30.15,North,10,1.0,1.0,82,0.03,RA,,0.03,WeatherDisplay:10.37,2013-01-24 23:24:00,
2013-01-24 15:27:00,55.0,49.6,30.15,North,10,1.0,0.0,82,0.03,RA,,0.04,WeatherDisplay:10.37,2013-01-24 23:27:00,
2013-01-24 15:28:00,55.0,49.3,30.15,North,10,2.0,2.0,81,0.03,RA,,0.04,WeatherDisplay:10.37,2013-01-24 23:28:00,
2013-01-24 15:29:00,55.0,49.3,30.15,North,10,3.5,3.5,81,0.04,RA,,0.04,WeatherDisplay:10.37,2013-01-24 23:29:00,
2013-01-24 15:32:00,54.9,49.2,30.15,NNE,12,3.5,3.5,81,0.04,RA,,0.04,WeatherDisplay:10.37,2013-01-24 23:32:00,
2013-01-24 15:33:00,54.9,49.2,30.16,NNE,12,3.5,3.5,81,0.04,RA,,0.04,WeatherDisplay:10.37,2013-01-24 23:33:00,
2013-01-24 15:34:00,54.8,49.1,30.16,NNE,12,2.3,2.3,81,0.04,RA,,0.05,WeatherDisplay:10.37,2013-01-24 23:34:00,
2013-01-24 15:37:00,54.8,49.4,30.16,NNE,12,2.3,2.3,82,0.04,RA,,0.05,WeatherDisplay:10.37,2013-01-24 23:37:00,
2013-01-24 15:38:00,54.8,49.4,30.16,NNE,12,2.0,2.0,82,0.04,RA,,0.05,WeatherDisplay:10.37,2013-01-24 23:38:00,
2013-01-24 15:39:00,54.7,49.3,30.15,NNE,12,2.3,2.3,82,0.05,RA,,0.06,WeatherDisplay:10.37,2013-01-24 23:39:00,
2013-01-24 15:43:00,54.7,49.3,30.16,NNE,12,0.0,0.0,82,0.05,RA,,0.06,WeatherDisplay:10.37,2013-01-24 23:43:00,
2013-01-24 15:45:00,54.7,49.3,30.16,NNE,12,1.0,1.0,82,0.05,RA,,0.06,WeatherDisplay:10.37,2013-01-24 23:45:00,
2013-01-24 15:48:00,54.7,49.3,30.16,NNE,12,2.3,2.3,82,0.06,RA,,0.07,WeatherDisplay:10.37,2013-01-24 23:48:00,
2013-01-24 15:50:00,54.6,49.2,30.16,NNE,12,1.1,0.0,82,0.06,RA,,0.07,WeatherDisplay:10.37,2013-01-24 23:50:00,
2013-01-24 15:53:00,54.6,49.2,30.16,NNE,12,2.3,2.3,82,0.07,RA,,0.08,WeatherDisplay:10.37,2013-01-24 23:53:00,
2013-01-24 15:54:00,54.6,49.2,30.16,NNE,12,2.3,2.3,82,0.07,RA,,0.08,WeatherDisplay:10.37,2013-01-24 23:54:00,
2013-01-24 15:55:00,54.6,49.2,30.16,North,5,3.5,3.5,82,0.07,RA,,0.08,WeatherDisplay:10.37,2013-01-24 23:55:00,
2013-01-24 15:58:00,54.5,49.1,30.16,NNE,27,2.3,2.3,82,0.07,RA,,0.09,WeatherDisplay:10.37,2013-01-24 23:58:00,
2013-01-24 15:59:00,54.5,49.1,30.16,NNE,27,2.3,2.3,82,0.07,RA,,0.09,WeatherDisplay:10.37,2013-01-24 23:59:00,
2013-01-24 16:00:00,54.4,49.0,30.16,NNE,27,2.3,2.3,82,0.08,RA,,0.09,WeatherDisplay:10.37,2013-01-25 00:00:00,
2013-01-24 16:04:00,54.4,49.3,30.16,North,9,2.3,2.3,83,0.07,RA,,0.09,WeatherDisplay:10.37,2013-01-25 00:04:00,
2013-01-24 16:05:00,54.4,49.3,30.16,North,4,3.5,3.5,83,0.08,RA,,0.10,WeatherDisplay:10.37,2013-01-25 00:05:00,
2013-01-24 16:09:00,54.4,49.3,30.16,North,2,2.3,2.3,83,0.08,RA,,0.10,WeatherDisplay:10.37,2013-01-25 00:09:00,
2013-01-24 16:10:00,54.4,49.3,30.16,North,4,2.3,2.3,83,0.08,RA,,0.10,WeatherDisplay:10.37,2013-01-25 00:10:00,
2013-01-24 16:14:00,54.3,49.2,30.16,North,4,1.1,1.1,83,0.08,RA,,0.10,WeatherDisplay:10.37,2013-01-25 00:14:00,
2013-01-24 16:15:00,54.3,49.3,30.16,North,4,0.0,2.0,83,0.00,SCT,,0.10,WeatherDisplay:10.37,2013-01-25 00:15:00,
2013-01-24 16:19:00,54.3,49.2,30.16,North,2,2.3,2.3,83,0.09,RA,,0.11,WeatherDisplay:10.37,2013-01-25 00:19:00,
2013-01-24 16:20:00,54.3,49.2,30.16,NNE,12,2.3,2.3,83,0.09,RA,,0.11,WeatherDisplay:10.37,2013-01-25 00:20:00,
2013-01-24 16:21:00,54.3,49.2,30.16,NNE,13,2.3,2.3,83,0.09,RA,,0.11,WeatherDisplay:10.37,2013-01-25 00:21:00,
2013-01-24 16:24:00,54.3,49.2,30.16,NNE,12,0.0,0.0,83,0.08,RA,,0.11,WeatherDisplay:10.37,2013-01-25 00:24:00,
2013-01-24 16:25:00,54.3,49.6,30.16,NNE,12,0.0,0.0,84,0.08,RA,,0.11,WeatherDisplay:10.37,2013-01-25 00:25:00,
2013-01-24 16:26:00,54.3,49.6,30.16,NNE,12,0.0,0.0,84,0.08,RA,,0.11,WeatherDisplay:10.37,2013-01-25 00:26:00,
2013-01-24 16:29:00,54.2,49.5,30.16,North,358,3.5,3.5,84,0.07,SCT,,0.11,WeatherDisplay:10.37,2013-01-25 00:29:00,
2013-01-24 16:30:00,54.3,49.2,30.16,North,358,1.1,1.1,83,0.07,SCT,,0.11,WeatherDisplay:10.37,2013-01-25 00:30:00,
2013-01-24 16:32:00,54.2,49.1,30.17,North,358,0.0,0.0,83,0.07,SCT,,0.11,WeatherDisplay:10.37,2013-01-25 00:32:00,
2013-01-24 16:34:00,54.2,49.1,30.16,North,358,1.0,1.0,83,0.07,SCT,,0.12,WeatherDisplay:10.37,2013-01-25 00:34:00,
2013-01-24 16:35:00,54.2,49.5,30.16,North,358,2.3,2.3,84,0.07,RA,,0.12,WeatherDisplay:10.37,2013-01-25 00:35:00,
2013-01-24 16:37:00,54.2,49.5,30.16,North,358,2.3,2.3,84,0.07,RA,,0.12,WeatherDisplay:10.37,2013-01-25 00:37:00,
2013-01-24 16:39:00,54.2,49.5,30.16,North,358,1.1,1.1,84,0.06,RA,,0.12,WeatherDisplay:10.37,2013-01-25 00:39:00,
2013-01-24 16:40:00,54.2,49.1,30.17,North,358,1.1,0.0,83,0.06,RA,,0.12,WeatherDisplay:10.37,2013-01-25 00:40:00,
2013-01-24 16:42:00,54.2,49.5,30.16,North,358,0.0,0.0,84,0.06,RA,,0.12,WeatherDisplay:10.37,2013-01-25 00:42:00,
2013-01-24 16:44:00,54.1,49.4,30.17,North,358,0.0,0.0,84,0.06,RA,,0.12,WeatherDisplay:10.37,2013-01-25 00:44:00,
2013-01-24 16:45:00,54.1,49.4,30.17,North,358,0.0,0.0,84,0.06,SCT,,0.12,WeatherDisplay:10.37,2013-01-25 00:45:00,
2013-01-24 16:47:00,54.1,49.1,30.17,North,358,0.0,0.0,83,0.05,SCT,,0.12,WeatherDisplay:10.37,2013-01-25 00:47:00,
2013-01-24 16:49:00,54.1,49.4,30.17,North,358,2.3,2.3,84,0.05,SCT,,0.12,WeatherDisplay:10.37,2013-01-25 00:49:00,
2013-01-24 16:50:00,54.1,49.1,30.17,North,358,2.0,2.0,83,0.05,SCT,,0.12,WeatherDisplay:10.37,2013-01-25 00:50:00,
2013-01-24 16:51:00,54.1,49.1,30.17,North,358,1.1,1.1,83,0.05,SCT,,0.12,WeatherDisplay:10.37,2013-01-25 00:51:00,
2013-01-24 16:52:00,54.1,49.4,30.17,North,358,1.1,1.1,84,0.04,SCT,,0.12,WeatherDisplay:10.37,2013-01-25 00:52:00,
2013-01-24 16:54:00,54.0,49.3,30.17,North,358,1.1,1.1,84,0.04,SCT,,0.12,WeatherDisplay:10.37,2013-01-25 00:54:00,
2013-01-24 16:55:00,54.0,49.3,30.17,North,358,0.0,2.0,84,0.00,SCT,,0.12,WeatherDisplay:10.37,2013-01-25 00:55:00,
2013-01-24 16:56:00,54.0,49.3,30.17,North,358,1.1,0.0,84,0.04,SCT,,0.12,WeatherDisplay:10.37,2013-01-25 00:56:00,
2013-01-24 16:57:00,54.0,49.3,30.16,North,356,1.1,0.0,84,0.04,SCT,,0.12,WeatherDisplay:10.37,2013-01-25 00:57:00,
2013-01-24 17:00:00,53.9,49.2,30.17,North,358,0.0,3.0,84,0.00,SCT,,0.12,WeatherDisplay:10.37,2013-01-25 01:00:00,
2013-01-24 17:01:00,53.9,49.2,30.17,North,359,1.1,1.1,84,0.03,SCT,,0.12,WeatherDisplay:10.37,2013-01-25 01:01:00,
2013-01-24 17:03:00,53.9,49.2,30.17,North,359,2.3,0.0,84,0.03,SCT,,0.12,WeatherDisplay:10.37,2013-01-25 01:03:00,
2013-01-24 17:05:00,53.8,49.1,30.17,North,359,0.0,2.0,84,0.00,SCT,,0.12,WeatherDisplay:10.37,2013-01-25 01:05:00,
2013-01-24 17:06:00,53.8,49.1,30.17,North,359,0.0,0.0,84,0.02,SCT,,0.12,WeatherDisplay:10.37,2013-01-25 01:06:00,
2013-01-24 17:08:00,53.8,49.1,30.17,North,359,0.0,0.0,84,0.02,SCT,,0.12,WeatherDisplay:10.37,2013-01-25 01:08:00,
2013-01-24 17:10:00,53.8,49.1,30.17,North,359,0.0,0.0,84,0.02,SCT,,0.12,WeatherDisplay:10.37,2013-01-25 01:10:00,
2013-01-24 17:11:00,53.8,49.1,30.17,North,359,2.3,2.3,84,0.02,SCT,,0.12,WeatherDisplay:10.37,2013-01-25 01:11:00,
2013-01-24 17:13:00,53.8,49.1,30.17,North,359,2.3,2.3,84,0.02,SCT,,0.12,WeatherDisplay:10.37,2013-01-25 01:13:00,
2013-01-24 17:15:00,53.7,49.0,30.17,North,359,0.0,0.0,84,0.02,SCT,,0.12,WeatherDisplay:10.37,2013-01-25 01:15:00,
2013-01-24 17:16:00,53.7,49.0,30.17,North,359,0.0,0.0,84,0.02,SCT,,0.12,WeatherDisplay:10.37,2013-01-25 01:16:00,
2013-01-24 17:18:00,53.7,49.0,30.17,North,359,0.0,0.0,84,0.02,SCT,,0.12,WeatherDisplay:10.37,2013-01-25 01:18:00,
2013-01-24 17:20:00,53.7,49.0,30.17,North,359,0.0,0.1,84,0.01,SCT,,0.12,WeatherDisplay:10.37,2013-01-25 01:20:00,
2013-01-24 17:21:00,53.7,49.0,30.17,North,359,0.0,0.1,84,0.01,SCT,,0.12,WeatherDisplay:10.37,2013-01-25 01:21:00,
2013-01-24 17:23:00,53.6,48.9,30.17,North,359,2.3,0.0,84,0.01,SCT,,0.12,WeatherDisplay:10.37,2013-01-25 01:23:00,
2013-01-24 17:26:00,53.6,48.6,30.17,North,359,0.0,0.0,83,0.01,SCT,,0.12,WeatherDisplay:10.37,2013-01-25 01:26:00,
2013-01-24 17:27:00,53.6,48.9,30.17,North,359,0.0,0.0,84,0.01,SCT,,0.12,WeatherDisplay:10.37,2013-01-25 01:27:00,
2013-01-24 17:29:00,53.6,48.9,30.17,North,359,0.0,0.0,84,0.01,SCT,,0.12,WeatherDisplay:10.37,2013-01-25 01:29:00,
2013-01-24 17:31:00,53.6,48.9,30.17,North,359,0.0,0.0,84,0.01,SCT,,0.12,WeatherDisplay:10.37,2013-01-25 01:31:00,
2013-01-24 17:32:00,53.6,48.9,30.17,North,359,0.0,0.0,84,0.01,SCT,,0.12,WeatherDisplay:10.37,2013-01-25 01:32:00,
2013-01-24 17:34:00,53.6,48.9,30.17,North,359,0.0,0.0,84,0.01,SCT,,0.12,WeatherDisplay:10.37,2013-01-25 01:34:00,
2013-01-24 17:36:00,53.6,48.9,30.17,North,359,0.0,0.0,84,0.00,SCT,,0.12,WeatherDisplay:10.37,2013-01-25 01:36:00,
2013-01-24 17:37:00,53.5,48.8,30.17,North,359,0.0,0.0,84,0.00,SCT,,0.12,WeatherDisplay:10.37,2013-01-25 01:37:00,
2013-01-24 17:39:00,53.5,48.8,30.17,North,359,0.0,0.0,84,0.00,SCT,,0.12,WeatherDisplay:10.37,2013-01-25 01:39:00,
2013-01-24 17:41:00,53.5,48.8,30.17,North,359,0.0,0.0,84,0.00,SCT,,0.12,WeatherDisplay:10.37,2013-01-25 01:41:00,
2013-01-24 17:42:00,53.5,48.8,30.17,North,359,0.0,0.0,84,0.00,SCT,,0.12,WeatherDisplay:10.37,2013-01-25 01:42:00,
2013-01-24 17:44:00,53.4,48.7,30.17,North,359,0.0,0.0,84,0.00,SCT,,0.12,WeatherDisplay:10.37,2013-01-25 01:44:00,
2013-01-24 17:46:00,53.4,48.7,30.17,North,359,0.0,0.0,84,0.00,SCT,,0.12,WeatherDisplay:10.37,2013-01-25 01:46:00,
2013-01-24 17:47:00,53.4,48.7,30.17,North,359,0.0,0.0,84,0.00,SCT,,0.12,WeatherDisplay:10.37,2013-01-25 01:47:00,
2013-01-24 17:50:00,53.4,48.7,30.18,North,359,0.0,0.0,84,0.00,SCT,,0.12,WeatherDisplay:10.37,2013-01-25 01:50:00,
2013-01-24 17:51:00,53.4,48.7,30.18,North,359,0.0,0.0,84,0.00,SCT,,0.12,WeatherDisplay:10.37,2013-01-25 01:51:00,
2013-01-24 17:53:00,53.4,48.7,30.17,North,359,0.0,0.0,84,0.00,SCT,,0.12,WeatherDisplay:10.37,2013-01-25 01:53:00,
2013-01-24 17:55:00,53.4,49.0,30.18,North,359,0.0,0.0,85,0.00,SCT,,0.12,WeatherDisplay:10.37,2013-01-25 01:55:00,
2013-01-24 17:56:00,53.4,48.7,30.18,North,359,0.0,0.0,84,0.00,SCT,,0.12,WeatherDisplay:10.37,2013-01-25 01:56:00,
2013-01-24 17:58:00,53.4,48.7,30.18,North,359,0.0,0.0,84,0.00,SCT,,0.12,WeatherDisplay:10.37,2013-01-25 01:58:00,
2013-01-24 18:00:00,53.4,48.7,30.18,North,359,0.0,0.0,84,0.00,SCT,,0.12,WeatherDisplay:10.37,2013-01-25 02:00:00,
2013-01-24 18:01:00,53.4,48.7,30.18,North,359,0.0,0.0,84,0.00,SCT,,0.12,WeatherDisplay:10.37,2013-01-25 02:01:00,
2013-01-24 18:02:00,53.4,48.7,30.18,North,359,0.0,0.0,84,0.00,SCT,,0.12,WeatherDisplay:10.37,2013-01-25 02:02:00,
2013-01-24 18:03:00,53.4,48.7,30.18,North,359,0.0,0.0,84,0.00,SCT,,0.12,WeatherDisplay:10.37,2013-01-25 02:03:00,
2013-01-24 18:05:00,53.4,48.7,30.17,North,359,0.0,0.0,84,0.00,SCT,,0.12,WeatherDisplay:10.37,2013-01-25 02:05:00,
2013-01-24 18:07:00,53.4,48.7,30.18,North,359,0.0,0.0,84,0.00,SCT,,0.12,WeatherDisplay:10.37,2013-01-25 02:07:00,
2013-01-24 18:08:00,53.4,48.7,30.18,North,359,0.0,0.0,84,0.00,SCT,,0.12,WeatherDisplay:10.37,2013-01-25 02:08:00,
2013-01-24 18:10:00,53.3,48.6,30.18,North,359,0.0,0.0,84,0.00,SCT,,0.12,WeatherDisplay:10.37,2013-01-25 02:10:00,
2013-01-24 18:12:00,53.3,48.6,30.18,North,359,0.0,0.0,84,0.00,SCT,,0.12,WeatherDisplay:10.37,2013-01-25 02:12:00,
2013-01-24 18:13:00,53.3,48.6,30.18,North,359,0.0,0.0,84,0.00,SCT,,0.12,WeatherDisplay:10.37,2013-01-25 02:13:00,
2013-01-24 18:16:00,53.3,48.9,30.18,North,359,0.0,0.0,85,0.00,SCT,,0.12,WeatherDisplay:10.37,2013-01-25 02:16:00,
2013-01-24 18:17:00,53.3,48.9,30.18,North,359,0.0,0.0,85,0.00,SCT,,0.12,WeatherDisplay:10.37,2013-01-25 02:17:00,
2013-01-24 18:18:00,53.3,48.6,30.18,North,359,0.0,0.0,84,0.00,SCT,,0.12,WeatherDisplay:10.37,2013-01-25 02:18:00,
2013-01-24 18:21:00,53.3,48.6,30.18,North,359,0.0,0.0,84,0.00,SCT,,0.12,WeatherDisplay:10.37,2013-01-25 02:21:00,
2013-01-24 18:22:00,53.3,48.6,30.18,North,359,0.0,0.0,84,0.00,SCT,,0.12,WeatherDisplay:10.37,2013-01-25 02:22:00,
2013-01-24 18:23:00,53.3,48.6,30.18,North,359,0.0,0.0,84,0.00,SCT,,0.12,WeatherDisplay:10.37,2013-01-25 02:23:00,
2013-01-24 18:26:00,53.2,48.5,30.18,North,359,0.0,0.0,84,0.00,SCT,,0.12,WeatherDisplay:10.37,2013-01-25 02:26:00,
2013-01-24 18:27:00,53.3,48.9,30.18,North,359,0.0,0.0,85,0.00,SCT,,0.12,WeatherDisplay:10.37,2013-01-25 02:27:00,
2013-01-24 18:28:00,53.2,48.8,30.18,North,359,0.0,0.0,85,0.00,SCT,,0.12,WeatherDisplay:10.37,2013-01-25 02:28:00,
2013-01-24 18:31:00,53.2,48.8,30.18,North,359,1.1,1.1,85,0.00,SCT,,0.12,WeatherDisplay:10.37,2013-01-25 02:31:00,
2013-01-24 18:32:00,53.2,48.5,30.18,North,359,0.0,0.0,84,0.00,SCT,,0.12,WeatherDisplay:10.37,2013-01-25 02:32:00,
2013-01-24 18:33:00,53.2,48.5,30.18,North,359,0.0,0.0,84,0.00,SCT,,0.12,WeatherDisplay:10.37,2013-01-25 02:33:00,
2013-01-24 18:34:00,53.2,48.5,30.18,North,359,0.0,0.0,84,0.00,SCT,,0.12,WeatherDisplay:10.37,2013-01-25 02:34:00,
2013-01-24 18:36:00,53.2,48.8,30.18,North,359,0.0,0.0,85,0.00,SCT,,0.12,WeatherDisplay:10.37,2013-01-25 02:36:00,
2013-01-24 18:37:00,53.1,48.7,30.18,North,359,0.0,0.0,85,0.00,SCT,,0.12,WeatherDisplay:10.37,2013-01-25 02:37:00,
2013-01-24 18:38:00,53.1,48.7,30.18,North,359,0.0,0.0,85,0.00,SCT,,0.12,WeatherDisplay:10.37,2013-01-25 02:38:00,
2013-01-24 18:39:00,53.1,48.7,30.18,North,359,0.0,0.0,85,0.00,SCT,,0.12,WeatherDisplay:10.37,2013-01-25 02:39:00,
2013-01-24 18:41:00,53.1,48.7,30.18,North,359,0.0,0.0,85,0.00,SCT,,0.12,WeatherDisplay:10.37,2013-01-25 02:41:00,
2013-01-24 18:42:00,53.1,48.7,30.18,North,359,0.0,0.0,85,0.00,SCT,,0.12,WeatherDisplay:10.37,2013-01-25 02:42:00,
2013-01-24 18:44:00,53.1,48.7,30.19,North,359,0.0,0.0,85,0.00,SCT,,0.12,WeatherDisplay:10.37,2013-01-25 02:44:00,
2013-01-24 18:46:00,53.0,48.6,30.18,North,359,0.0,0.0,85,0.00,SCT,,0.12,WeatherDisplay:10.37,2013-01-25 02:46:00,
2013-01-24 18:47:00,53.1,48.7,30.18,North,359,0.0,0.0,85,0.00,SCT,,0.12,WeatherDisplay:10.37,2013-01-25 02:47:00,
2013-01-24 18:49:00,53.0,48.6,30.18,North,359,0.0,0.0,85,0.00,SCT,,0.12,WeatherDisplay:10.37,2013-01-25 02:49:00,
2013-01-24 18:52:00,53.0,48.6,30.19,North,359,0.0,0.0,85,0.00,SCT,,0.12,WeatherDisplay:10.37,2013-01-25 02:52:00,
2013-01-24 18:54:00,53.0,48.6,30.19,North,359,0.0,0.0,85,0.00,SCT,,0.12,WeatherDisplay:10.37,2013-01-25 02:54:00,
2013-01-24 18:57:00,53.0,48.6,30.18,North,359,0.0,0.0,85,0.00,SCT,,0.12,WeatherDisplay:10.37,2013-01-25 02:57:00,
2013-01-24 18:58:00,53.0,48.6,30.19,North,359,0.0,0.0,85,0.00,SCT,,0.12,WeatherDisplay:10.37,2013-01-25 02:58:00,
2013-01-24 18:59:00,53.0,48.6,30.19,North,359,0.0,0.0,85,0.00,SCT,,0.12,WeatherDisplay:10.37,2013-01-25 02:59:00,
2013-01-24 19:02:00,53.0,48.6,30.19,North,359,0.0,0.0,85,0.00,SCT,,0.12,WeatherDisplay:10.37,2013-01-25 03:02:00,
2013-01-24 19:03:00,53.0,48.6,30.18,North,359,0.0,0.0,85,0.00,SCT,,0.12,WeatherDisplay:10.37,2013-01-25 03:03:00,
2013-01-24 19:04:00,52.9,48.5,30.19,North,359,0.0,0.0,85,0.00,SCT,,0.12,WeatherDisplay:10.37,2013-01-25 03:04:00,
2013-01-24 19:07:00,53.0,48.6,30.19,North,359,0.0,0.0,85,0.00,SCT,,0.12,WeatherDisplay:10.37,2013-01-25 03:07:00,
2013-01-24 19:08:00,53.0,48.6,30.19,North,359,0.0,0.0,85,0.00,SCT,,0.12,WeatherDisplay:10.37,2013-01-25 03:08:00,
2013-01-24 19:09:00,52.9,48.5,30.19,North,359,0.0,0.0,85,0.00,SCT,,0.12,WeatherDisplay:10.37,2013-01-25 03:09:00,
2013-01-24 19:10:00,53.0,48.6,30.19,North,359,0.0,0.0,85,0.00,SCT,,0.12,WeatherDisplay:10.37,2013-01-25 03:10:00,
2013-01-24 19:12:00,53.0,48.6,30.19,North,359,0.0,0.0,85,0.00,SCT,,0.12,WeatherDisplay:10.37,2013-01-25 03:12:00,
2013-01-24 19:13:00,52.9,48.2,30.19,North,359,0.0,0.0,84,0.00,SCT,,0.12,WeatherDisplay:10.37,2013-01-25 03:13:00,
2013-01-24 19:14:00,52.9,48.5,30.19,North,359,0.0,0.0,85,0.00,SCT,,0.12,WeatherDisplay:10.37,2013-01-25 03:14:00,
2013-01-24 19:15:00,52.9,48.5,30.19,North,359,0.0,0.0,85,0.00,SCT,,0.12,WeatherDisplay:10.37,2013-01-25 03:15:00,
2013-01-24 19:17:00,52.9,48.5,30.19,North,359,0.0,0.0,85,0.00,SCT,,0.12,WeatherDisplay:10.37,2013-01-25 03:17:00,
2013-01-24 19:18:00,53.0,48.6,30.19,North,359,0.0,0.0,85,0.00,SCT,,0.12,WeatherDisplay:10.37,2013-01-25 03:18:00,
2013-01-24 19:19:00,52.9,48.5,30.19,North,359,0.0,0.0,85,0.00,SCT,,0.12,WeatherDisplay:10.37,2013-01-25 03:19:00,
2013-01-24 19:20:00,53.0,48.6,30.19,North,359,0.0,0.0,85,0.00,SCT,,0.12,WeatherDisplay:10.37,2013-01-25 03:20:00,
2013-01-24 19:22:00,53.0,48.6,30.19,North,359,0.0,0.0,85,0.00,SCT,,0.12,WeatherDisplay:10.37,2013-01-25 03:22:00,
2013-01-24 19:23:00,53.0,48.3,30.19,North,359,0.0,0.0,84,0.00,SCT,,0.12,WeatherDisplay:10.37,2013-01-25 03:23:00,
2013-01-24 19:24:00,53.0,48.3,30.19,North,359,0.0,0.0,84,0.00,SCT,,0.12,WeatherDisplay:10.37,2013-01-25 03:24:00,
2013-01-24 19:25:00,53.0,48.3,30.19,North,359,0.0,0.0,84,0.00,SCT,,0.12,WeatherDisplay:10.37,2013-01-25 03:25:00,
2013-01-24 19:28:00,53.0,48.6,30.19,North,359,0.0,0.0,85,0.00,SCT,,0.12,WeatherDisplay:10.37,2013-01-25 03:28:00,
2013-01-24 19:29:00,53.0,48.3,30.19,North,359,0.0,0.0,84,0.00,SCT,,0.12,WeatherDisplay:10.37,2013-01-25 03:29:00,
2013-01-24 19:30:00,53.0,48.3,30.19,North,359,0.0,0.0,84,0.00,SCT,,0.12,WeatherDisplay:10.37,2013-01-25 03:30:00,
2013-01-24 19:33:00,53.0,48.3,30.19,North,359,0.0,0.0,84,0.00,SCT,,0.12,WeatherDisplay:10.37,2013-01-25 03:33:00,
2013-01-24 19:34:00,53.0,48.3,30.19,North,359,0.0,0.0,84,0.00,SCT,,0.12,WeatherDisplay:10.37,2013-01-25 03:34:00,
2013-01-24 19:35:00,52.9,48.2,30.19,North,359,0.0,0.0,84,0.00,SCT,,0.12,WeatherDisplay:10.37,2013-01-25 03:35:00,
2013-01-24 19:38:00,52.9,48.5,30.19,North,359,0.0,0.0,85,0.00,SCT,,0.12,WeatherDisplay:10.37,2013-01-25 03:38:00,
2013-01-24 19:39:00,52.9,48.5,30.19,North,359,0.0,0.0,85,0.00,SCT,,0.12,WeatherDisplay:10.37,2013-01-25 03:39:00,
2013-01-24 19:40:00,52.9,48.5,30.19,North,359,0.0,0.0,85,0.00,SCT,,0.12,WeatherDisplay:10.37,2013-01-25 03:40:00,
2013-01-24 19:43:00,52.9,48.5,30.19,North,359,0.0,0.0,85,0.00,SCT,,0.12,WeatherDisplay:10.37,2013-01-25 03:43:00,
2013-01-24 19:44:00,52.9,48.5,30.19,North,359,0.0,0.0,85,0.00,SCT,,0.12,WeatherDisplay:10.37,2013-01-25 03:44:00,
2013-01-24 19:45:00,52.9,48.5,30.19,North,359,0.0,0.0,85,0.00,SCT,,0.12,WeatherDisplay:10.37,2013-01-25 03:45:00,
2013-01-24 19:49:00,52.9,48.5,30.19,North,359,0.0,0.0,85,0.00,SCT,,0.12,WeatherDisplay:10.37,2013-01-25 03:49:00,
2013-01-24 19:50:00,52.9,48.5,30.19,North,359,0.0,0.0,85,0.00,SCT,,0.12,WeatherDisplay:10.37,2013-01-25 03:50:00,
2013-01-24 19:54:00,52.9,48.5,30.19,North,359,0.0,0.0,85,0.00,SCT,,0.12,WeatherDisplay:10.37,2013-01-25 03:54:00,
2013-01-24 19:55:00,52.9,48.5,30.19,North,359,0.0,0.0,85,0.00,SCT,,0.12,WeatherDisplay:10.37,2013-01-25 03:55:00,
2013-01-24 19:56:00,52.9,48.5,30.19,North,359,0.0,0.0,85,0.00,SCT,,0.12,WeatherDisplay:10.37,2013-01-25 03:56:00,
2013-01-24 19:59:00,52.8,48.1,30.20,North,359,0.0,0.0,84,0.00,SCT,,0.12,WeatherDisplay:10.37,2013-01-25 03:59:00,
2013-01-24 20:01:00,52.8,48.4,30.20,North,359,0.0,0.0,85,0.00,SCT,,0.12,WeatherDisplay:10.37,2013-01-25 04:01:00,
2013-01-24 20:04:00,52.8,48.4,30.20,North,359,0.0,0.0,85,0.00,SCT,,0.12,WeatherDisplay:10.37,2013-01-25 04:04:00,
2013-01-24 20:06:00,52.8,48.4,30.20,North,359,0.0,0.0,85,0.00,SCT,,0.12,WeatherDisplay:10.37,2013-01-25 04:06:00,
2013-01-24 20:09:00,52.8,48.4,30.19,North,359,0.0,0.0,85,0.00,SCT,,0.12,WeatherDisplay:10.37,2013-01-25 04:09:00,
2013-01-24 20:11:00,52.8,48.4,30.20,North,359,0.0,0.0,85,0.00,SCT,,0.12,WeatherDisplay:10.37,2013-01-25 04:11:00,
2013-01-24 20:14:00,52.7,48.3,30.20,North,359,0.0,0.0,85,0.00,SCT,,0.12,WeatherDisplay:10.37,2013-01-25 04:14:00,
2013-01-24 20:15:00,52.7,48.3,30.20,North,359,0.0,0.0,85,0.00,SCT,,0.12,WeatherDisplay:10.37,2013-01-25 04:15:00,
2013-01-24 20:16:00,52.7,48.3,30.20,North,359,0.0,0.0,85,0.00,SCT,,0.12,WeatherDisplay:10.37,2013-01-25 04:16:00,
2013-01-24 20:19:00,52.6,48.2,30.20,North,359,0.0,0.0,85,0.00,SCT,,0.12,WeatherDisplay:10.37,2013-01-25 04:19:00,
2013-01-24 20:20:00,52.6,48.2,30.20,North,359,0.0,0.0,85,0.00,SCT,,0.12,WeatherDisplay:10.37,2013-01-25 04:20:00,
2013-01-24 20:21:00,52.6,48.2,30.20,North,359,0.0,0.0,85,0.00,SCT,,0.12,WeatherDisplay:10.37,2013-01-25 04:21:00,
2013-01-24 20:22:00,52.6,48.2,30.19,North,359,0.0,0.0,85,0.00,SCT,,0.12,WeatherDisplay:10.37,2013-01-25 04:22:00,
2013-01-24 20:25:00,52.6,48.2,30.20,North,359,0.0,0.0,85,0.00,SCT,,0.12,WeatherDisplay:10.37,2013-01-25 04:25:00,
2013-01-24 20:26:00,52.6,48.2,30.19,North,359,0.0,0.0,85,0.00,SCT,,0.12,WeatherDisplay:10.37,2013-01-25 04:26:00,
2013-01-24 20:27:00,52.6,48.2,30.20,North,359,0.0,0.0,85,0.00,SCT,,0.12,WeatherDisplay:10.37,2013-01-25 04:27:00,
2013-01-24 20:30:00,52.6,48.2,30.19,North,359,0.0,0.0,85,0.00,SCT,,0.12,WeatherDisplay:10.37,2013-01-25 04:30:00,
2013-01-24 20:32:00,52.6,48.2,30.20,North,359,0.0,0.0,85,0.00,SCT,,0.12,WeatherDisplay:10.37,2013-01-25 04:32:00,
2013-01-24 20:35:00,52.5,48.1,30.20,North,359,0.0,0.0,85,0.00,SCT,,0.12,WeatherDisplay:10.37,2013-01-25 04:35:00,
2013-01-24 20:37:00,52.6,48.2,30.20,North,359,0.0,0.0,85,0.00,SCT,,0.12,WeatherDisplay:10.37,2013-01-25 04:37:00,
2013-01-24 20:40:00,52.5,48.1,30.20,North,359,0.0,0.0,85,0.00,SCT,,0.12,WeatherDisplay:10.37,2013-01-25 04:40:00,
2013-01-24 20:42:00,52.5,48.1,30.20,North,359,0.0,0.0,85,0.00,SCT,,0.12,WeatherDisplay:10.37,2013-01-25 04:42:00,
2013-01-24 20:45:00,52.5,48.1,30.20,North,359,0.0,0.0,85,0.00,SCT,,0.12,WeatherDisplay:10.37,2013-01-25 04:45:00,
2013-01-24 20:47:00,52.5,48.1,30.20,North,359,0.0,0.0,85,0.00,SCT,,0.12,WeatherDisplay:10.37,2013-01-25 04:47:00,
2013-01-24 20:50:00,52.4,48.0,30.20,North,359,0.0,0.0,85,0.00,SCT,,0.12,WeatherDisplay:10.37,2013-01-25 04:50:00,
2013-01-24 20:51:00,52.4,48.0,30.20,North,359,0.0,0.0,85,0.00,SCT,,0.12,WeatherDisplay:10.37,2013-01-25 04:51:00,
2013-01-24 20:52:00,52.4,48.0,30.20,North,359,0.0,0.0,85,0.00,SCT,,0.12,WeatherDisplay:10.37,2013-01-25 04:52:00,
2013-01-24 20:55:00,52.4,48.0,30.20,North,359,0.0,0.0,85,0.00,SCT,,0.12,WeatherDisplay:10.37,2013-01-25 04:55:00,
2013-01-24 20:56:00,52.4,47.7,30.20,North,359,0.0,0.0,84,0.00,SCT,,0.12,WeatherDisplay:10.37,2013-01-25 04:56:00,
2013-01-24 20:57:00,52.4,48.0,30.20,North,359,0.0,0.0,85,0.00,SCT,,0.12,WeatherDisplay:10.37,2013-01-25 04:57:00,
2013-01-24 21:00:00,52.4,48.0,30.20,North,359,0.0,0.0,85,0.00,SCT,,0.12,WeatherDisplay:10.37,2013-01-25 05:00:00,
2013-01-24 21:01:00,52.4,48.0,30.20,North,359,0.0,0.0,85,0.00,SCT,,0.12,WeatherDisplay:10.37,2013-01-25 05:01:00,
2013-01-24 21:03:00,52.4,48.0,30.20,North,359,0.0,0.0,85,0.00,SCT,,0.12,WeatherDisplay:10.37,2013-01-25 05:03:00,
2013-01-24 21:06:00,52.4,47.7,30.20,North,359,0.0,0.0,84,0.00,SCT,,0.12,WeatherDisplay:10.37,2013-01-25 05:06:00,
2013-01-24 21:08:00,52.3,47.9,30.20,North,359,0.0,0.0,85,0.00,SCT,,0.12,WeatherDisplay:10.37,2013-01-25 05:08:00,
2013-01-24 21:11:00,52.3,47.9,30.20,North,359,0.0,0.0,85,0.00,SCT,,0.12,WeatherDisplay:10.37,2013-01-25 05:11:00,
2013-01-24 21:13:00,52.3,47.9,30.20,North,359,0.0,0.0,85,0.00,SCT,,0.12,WeatherDisplay:10.37,2013-01-25 05:13:00,
2013-01-24 21:16:00,52.3,47.9,30.20,North,359,0.0,0.0,85,0.00,SCT,,0.12,WeatherDisplay:10.37,2013-01-25 05:16:00,
2013-01-24 21:19:00,52.3,47.9,30.20,North,359,0.0,0.0,85,0.00,SCT,,0.12,WeatherDisplay:10.37,2013-01-25 05:19:00,
2013-01-24 21:21:00,52.2,47.8,30.20,North,359,0.0,0.0,85,0.00,SCT,,0.12,WeatherDisplay:10.37,2013-01-25 05:21:00,
2013-01-24 21:24:00,52.2,47.8,30.20,North,359,0.0,0.0,85,0.00,SCT,,0.12,WeatherDisplay:10.37,2013-01-25 05:24:00,
2013-01-24 21:26:00,52.2,47.8,30.20,North,359,0.0,0.0,85,0.00,SCT,,0.12,WeatherDisplay:10.37,2013-01-25 05:26:00,
2013-01-24 21:29:00,52.2,47.8,30.20,North,359,0.0,0.0,85,0.00,SCT,,0.12,WeatherDisplay:10.37,2013-01-25 05:29:00,
2013-01-24 21:31:00,52.2,47.8,30.20,North,359,0.0,0.0,85,0.00,SCT,,0.12,WeatherDisplay:10.37,2013-01-25 05:31:00,
2013-01-24 21:32:00,52.2,47.8,30.20,North,359,0.0,0.0,85,0.00,SCT,,0.12,WeatherDisplay:10.37,2013-01-25 05:32:00,
2013-01-24 21:34:00,52.2,47.8,30.20,North,359,0.0,0.0,85,0.00,SCT,,0.12,WeatherDisplay:10.37,2013-01-25 05:34:00,
2013-01-24 21:36:00,52.2,47.8,30.20,North,359,0.0,0.0,85,0.00,SCT,,0.12,WeatherDisplay:10.37,2013-01-25 05:36:00,
2013-01-24 21:37:00,52.2,47.8,30.20,North,359,0.0,0.0,85,0.00,SCT,,0.12,WeatherDisplay:10.37,2013-01-25 05:37:00,
2013-01-24 21:39:00,52.1,47.7,30.20,North,359,0.0,0.0,85,0.00,SCT,,0.12,WeatherDisplay:10.37,2013-01-25 05:39:00,
2013-01-24 21:41:00,52.1,47.7,30.20,North,359,0.0,0.0,85,0.00,SCT,,0.12,WeatherDisplay:10.37,2013-01-25 05:41:00,
2013-01-24 21:42:00,52.1,47.7,30.20,North,359,0.0,0.0,85,0.00,SCT,,0.12,WeatherDisplay:10.37,2013-01-25 05:42:00,
2013-01-24 21:44:00,52.1,47.7,30.20,North,359,0.0,0.0,85,0.00,SCT,,0.12,WeatherDisplay:10.37,2013-01-25 05:44:00,
2013-01-24 21:46:00,52.1,47.7,30.20,North,359,0.0,0.0,85,0.00,SCT,,0.12,WeatherDisplay:10.37,2013-01-25 05:46:00,
2013-01-24 21:47:00,52.1,47.7,30.20,North,359,0.0,0.0,85,0.00,SCT,,0.12,WeatherDisplay:10.37,2013-01-25 05:47:00,
2013-01-24 21:49:00,52.0,47.6,30.20,North,359,0.0,0.0,85,0.00,SCT,,0.12,WeatherDisplay:10.37,2013-01-25 05:49:00,
2013-01-24 21:52:00,52.1,47.7,30.20,North,359,0.0,0.0,85,0.00,SCT,,0.12,WeatherDisplay:10.37,2013-01-25 05:52:00,
2013-01-24 21:54:00,52.0,47.6,30.20,North,359,0.0,0.0,85,0.00,SCT,,0.12,WeatherDisplay:10.37,2013-01-25 05:54:00,
2013-01-24 21:57:00,52.0,47.3,30.20,North,359,0.0,0.0,84,0.00,SCT,,0.12,WeatherDisplay:10.37,2013-01-25 05:57:00,
2013-01-24 22:00:00,52.0,47.6,30.20,North,359,0.0,0.0,85,0.00,SCT,,0.12,WeatherDisplay:10.37,2013-01-25 06:00:00,
2013-01-24 22:02:00,52.0,47.6,30.20,North,359,0.0,0.0,85,0.00,SCT,,0.12,WeatherDisplay:10.37,2013-01-25 06:02:00,
2013-01-24 22:05:00,51.9,47.2,30.20,North,359,0.0,0.0,84,0.00,SCT,,0.12,WeatherDisplay:10.37,2013-01-25 06:05:00,
2013-01-24 22:07:00,51.9,47.5,30.20,North,359,0.0,0.0,85,0.00,SCT,,0.12,WeatherDisplay:10.37,2013-01-25 06:07:00,
2013-01-24 22:10:00,51.9,47.5,30.20,North,359,0.0,0.0,85,0.00,SCT,,0.12,WeatherDisplay:10.37,2013-01-25 06:10:00,
2013-01-24 22:12:00,51.9,47.5,30.20,North,359,0.0,0.0,85,0.00,SCT,,0.12,WeatherDisplay:10.37,2013-01-25 06:12:00,
2013-01-24 22:15:00,51.8,47.4,30.20,North,359,0.0,0.0,85,0.00,SCT,,0.12,WeatherDisplay:10.37,2013-01-25 06:15:00,
2013-01-24 22:17:00,51.8,47.4,30.21,North,359,0.0,0.0,85,0.00,SCT,,0.12,WeatherDisplay:10.37,2013-01-25 06:17:00,
2013-01-24 22:18:00,51.8,47.4,30.21,North,359,0.0,0.0,85,0.00,SCT,,0.12,WeatherDisplay:10.37,2013-01-25 06:18:00,
2013-01-24 22:20:00,51.8,47.1,30.21,North,359,0.0,0.0,84,0.00,SCT,,0.12,WeatherDisplay:10.37,2013-01-25 06:20:00,
2013-01-24 22:22:00,51.8,47.4,30.20,North,359,0.0,0.0,85,0.00,SCT,,0.12,WeatherDisplay:10.37,2013-01-25 06:22:00,
2013-01-24 22:23:00,51.8,47.4,30.21,North,359,0.0,0.0,85,0.00,SCT,,0.12,WeatherDisplay:10.37,2013-01-25 06:23:00,
2013-01-24 22:25:00,51.7,47.0,30.21,North,359,0.0,0.0,84,0.00,SCT,,0.12,WeatherDisplay:10.37,2013-01-25 06:25:00,
2013-01-24 22:27:00,51.7,47.0,30.21,North,359,0.0,0.0,84,0.00,SCT,,0.12,WeatherDisplay:10.37,2013-01-25 06:27:00,
2013-01-24 22:28:00,51.7,47.0,30.21,North,359,0.0,0.0,84,0.00,SCT,,0.12,WeatherDisplay:10.37,2013-01-25 06:28:00,
2013-01-24 22:30:00,51.7,47.3,30.21,North,359,0.0,0.0,85,0.00,SCT,,0.12,WeatherDisplay:10.37,2013-01-25 06:30:00,
2013-01-24 22:33:00,51.6,47.2,30.21,North,359,0.0,0.0,85,0.00,SCT,,0.12,WeatherDisplay:10.37,2013-01-25 06:33:00,
2013-01-24 22:35:00,51.6,46.9,30.21,North,359,0.0,0.0,84,0.00,SCT,,0.12,WeatherDisplay:10.37,2013-01-25 06:35:00,
2013-01-24 22:38:00,51.6,47.2,30.21,North,359,0.0,0.0,85,0.00,SCT,,0.12,WeatherDisplay:10.37,2013-01-25 06:38:00,
2013-01-24 22:39:00,51.6,47.2,30.21,North,359,0.0,0.0,85,0.00,SCT,,0.12,WeatherDisplay:10.37,2013-01-25 06:39:00,
2013-01-24 22:40:00,51.5,47.1,30.21,North,359,0.0,0.0,85,0.00,SCT,,0.12,WeatherDisplay:10.37,2013-01-25 06:40:00,
2013-01-24 22:43:00,51.5,47.1,30.21,North,359,0.0,0.0,85,0.00,SCT,,0.12,WeatherDisplay:10.37,2013-01-25 06:43:00,
2013-01-24 22:44:00,51.5,47.1,30.21,North,359,0.0,0.0,85,0.00,SCT,,0.12,WeatherDisplay:10.37,2013-01-25 06:44:00,
2013-01-24 22:46:00,51.5,47.1,30.21,North,359,0.0,0.0,85,0.00,SCT,,0.12,WeatherDisplay:10.37,2013-01-25 06:46:00,
2013-01-24 22:48:00,51.4,47.0,30.21,North,359,0.0,0.0,85,0.00,SCT,,0.12,WeatherDisplay:10.37,2013-01-25 06:48:00,
2013-01-24 22:49:00,51.4,47.0,30.21,North,359,0.0,0.0,85,0.00,SCT,,0.12,WeatherDisplay:10.37,2013-01-25 06:49:00,
2013-01-24 22:51:00,51.4,47.0,30.21,North,359,0.0,0.0,85,0.00,SCT,,0.12,WeatherDisplay:10.37,2013-01-25 06:51:00,
2013-01-24 22:53:00,51.4,47.0,30.21,North,359,0.0,0.0,85,0.00,SCT,,0.12,WeatherDisplay:10.37,2013-01-25 06:53:00,
2013-01-24 22:54:00,51.4,47.0,30.21,North,359,0.0,0.0,85,0.00,SCT,,0.12,WeatherDisplay:10.37,2013-01-25 06:54:00,
2013-01-24 22:56:00,51.4,47.0,30.21,North,359,0.0,0.0,85,0.00,SCT,,0.12,WeatherDisplay:10.37,2013-01-25 06:56:00,
2013-01-24 22:58:00,51.4,47.0,30.22,North,359,0.0,0.0,85,0.00,SCT,,0.12,WeatherDisplay:10.37,2013-01-25 06:58:00,
2013-01-24 23:00:00,51.4,47.0,30.21,North,359,0.0,0.0,85,0.00,SCT,,0.12,WeatherDisplay:10.37,2013-01-25 07:00:00,
2013-01-24 23:01:00,51.4,47.0,30.22,North,359,0.0,0.0,85,0.00,SCT,,0.12,WeatherDisplay:10.37,2013-01-25 07:01:00,
2013-01-24 23:03:00,51.4,47.0,30.22,North,359,0.0,0.0,85,0.00,SCT,,0.12,WeatherDisplay:10.37,2013-01-25 07:03:00,
2013-01-24 23:05:00,51.4,47.0,30.22,North,359,0.0,0.0,85,0.00,SCT,,0.12,WeatherDisplay:10.37,2013-01-25 07:05:00,
2013-01-24 23:06:00,51.4,47.0,30.21,North,359,0.0,0.0,85,0.00,SCT,,0.12,WeatherDisplay:10.37,2013-01-25 07:06:00,
2013-01-24 23:08:00,51.4,47.0,30.21,North,359,0.0,0.0,85,0.00,SCT,,0.12,WeatherDisplay:10.37,2013-01-25 07:08:00,
2013-01-24 23:09:00,51.4,47.0,30.22,North,359,0.0,0.0,85,0.00,SCT,,0.12,WeatherDisplay:10.37,2013-01-25 07:09:00,
2013-01-24 23:10:00,51.3,46.9,30.21,North,359,0.0,0.0,85,0.00,SCT,,0.12,WeatherDisplay:10.37,2013-01-25 07:10:00,
2013-01-24 23:11:00,51.4,47.0,30.21,North,359,0.0,0.0,85,0.00,SCT,,0.12,WeatherDisplay:10.37,2013-01-25 07:11:00,
2013-01-24 23:14:00,51.3,46.9,30.21,North,359,0.0,0.0,85,0.00,SCT,,0.12,WeatherDisplay:10.37,2013-01-25 07:14:00,
2013-01-24 23:15:00,51.3,46.9,30.21,North,359,0.0,0.0,85,0.00,SCT,,0.12,WeatherDisplay:10.37,2013-01-25 07:15:00,
2013-01-24 23:16:00,51.3,46.9,30.22,North,359,0.0,0.0,85,0.00,SCT,,0.12,WeatherDisplay:10.37,2013-01-25 07:16:00,
2013-01-24 23:19:00,51.3,46.9,30.22,North,359,0.0,0.0,85,0.00,SCT,,0.12,WeatherDisplay:10.37,2013-01-25 07:19:00,
2013-01-24 23:20:00,51.3,46.9,30.22,North,359,0.0,0.0,85,0.00,SCT,,0.12,WeatherDisplay:10.37,2013-01-25 07:20:00,
2013-01-24 23:21:00,51.3,46.9,30.22,North,359,0.0,0.0,85,0.00,SCT,,0.12,WeatherDisplay:10.37,2013-01-25 07:21:00,
2013-01-24 23:24:00,51.3,46.9,30.22,North,359,0.0,0.0,85,0.00,SCT,,0.12,WeatherDisplay:10.37,2013-01-25 07:24:00,
2013-01-24 23:25:00,51.3,46.6,30.22,North,359,0.0,0.0,84,0.00,SCT,,0.12,WeatherDisplay:10.37,2013-01-25 07:25:00,
2013-01-24 23:26:00,51.3,46.9,30.22,North,359,0.0,0.0,85,0.00,SCT,,0.12,WeatherDisplay:10.37,2013-01-25 07:26:00,
2013-01-24 23:29:00,51.2,46.8,30.22,North,359,0.0,0.0,85,0.00,SCT,,0.12,WeatherDisplay:10.37,2013-01-25 07:29:00,
2013-01-24 23:30:00,51.2,46.8,30.22,North,359,0.0,0.0,85,0.00,SCT,,0.12,WeatherDisplay:10.37,2013-01-25 07:30:00,
2013-01-24 23:31:00,51.2,46.8,30.21,North,359,0.0,0.0,85,0.00,SCT,,0.12,WeatherDisplay:10.37,2013-01-25 07:31:00,
2013-01-24 23:34:00,51.2,46.8,30.22,North,359,0.0,0.0,85,0.00,SCT,,0.12,WeatherDisplay:10.37,2013-01-25 07:34:00,
2013-01-24 23:35:00,51.2,46.8,30.22,North,359,0.0,0.0,85,0.00,SCT,,0.12,WeatherDisplay:10.37,2013-01-25 07:35:00,
2013-01-24 23:37:00,51.2,46.8,30.22,North,359,0.0,0.0,85,0.00,SCT,,0.12,WeatherDisplay:10.37,2013-01-25 07:37:00,
2013-01-24 23:40:00,51.1,46.7,30.22,North,359,0.0,0.0,85,0.00,SCT,,0.12,WeatherDisplay:10.37,2013-01-25 07:40:00,
2013-01-24 23:42:00,51.1,46.7,30.22,North,359,0.0,0.0,85,0.00,SCT,,0.12,WeatherDisplay:10.37,2013-01-25 07:42:00,
2013-01-24 23:45:00,51.2,46.8,30.22,North,359,0.0,0.0,85,0.00,SCT,,0.12,WeatherDisplay:10.37,2013-01-25 07:45:00,
2013-01-24 23:46:00,51.2,46.8,30.22,North,359,0.0,0.0,85,0.00,SCT,,0.12,WeatherDisplay:10.37,2013-01-25 07:46:00,
2013-01-24 23:48:00,51.2,46.8,30.22,North,359,0.0,0.0,85,0.00,SCT,,0.12,WeatherDisplay:10.37,2013-01-25 07:48:00,
2013-01-24 23:50:00,51.2,46.8,30.22,North,359,0.0,0.0,85,0.00,SCT,,0.12,WeatherDisplay:10.37,2013-01-25 07:50:00,
2013-01-24 23:51:00,51.2,46.8,30.22,North,359,0.0,0.0,85,0.00,SCT,,0.12,WeatherDisplay:10.37,2013-01-25 07:51:00,
2013-01-24 23:53:00,51.2,46.8,30.21,North,359,0.0,0.0,85,0.00,SCT,,0.12,WeatherDisplay:10.37,2013-01-25 07:53:00,
2013-01-24 23:55:00,51.2,46.8,30.22,North,359,0.0,0.0,85,0.00,SCT,,0.12,WeatherDisplay:10.37,2013-01-25 07:55:00,
2013-01-24 23:56:00,51.2,46.8,30.22,North,359,0.0,0.0,85,0.00,SCT,,0.12,WeatherDisplay:10.37,2013-01-25 07:56:00,
2013-01-24 23:58:00,51.2,46.8,30.22,North,359,0.0,0.0,85,0.00,SCT,,0.12,WeatherDisplay:10.37,2013-01-25 07:58:00,